Time,TemperatureF,DewpointF,PressureIn,WindDirection,WindDirectionDegrees,WindSpeedMPH,WindSpeedGustMPH,Humidity,HourlyPrecipIn,Conditions,Clouds,dailyrainin,SoftwareType,DateUTC
2013-02-20 00:00:00,34.1,33.3,29.66,WSW,242,1.0,1.0,97,0.00,,,0.00,Wunderground v.1.15,2013-02-20 05:00:00,
2013-02-20 00:01:00,34.1,33.3,29.66,WSW,242,0.0,1.0,97,0.00,,,0.00,Wunderground v.1.15,2013-02-20 05:01:00,
2013-02-20 00:02:00,34.1,33.3,29.65,WSW,249,1.0,1.0,97,0.00,,,0.00,Wunderground v.1.15,2013-02-20 05:02:00,
2013-02-20 00:06:00,34.0,33.2,29.65,SE,136,0.0,1.0,97,0.00,,,0.00,Wunderground v.1.15,2013-02-20 05:06:00,
2013-02-20 00:09:00,33.9,32.9,29.65,SE,136,0.0,1.0,96,0.00,,,0.00,Wunderground v.1.15,2013-02-20 05:09:00,
2013-02-20 00:10:00,33.9,32.9,29.65,SE,136,0.0,0.0,96,0.00,,,0.00,Wunderground v.1.15,2013-02-20 05:10:00,
2013-02-20 00:12:00,33.9,32.9,29.65,SSE,156,0.0,0.0,96,0.00,,,0.00,Wunderground v.1.15,2013-02-20 05:12:00,
2013-02-20 00:16:00,33.8,32.8,29.65,SE,129,1.0,1.0,96,0.00,,,0.00,Wunderground v.1.15,2013-02-20 05:16:00,
2013-02-20 00:17:00,33.7,32.7,29.65,SE,127,1.0,1.0,96,0.00,,,0.00,Wunderground v.1.15,2013-02-20 05:17:00,
2013-02-20 00:20:00,33.7,32.9,29.65,SSE,166,0.0,0.0,97,0.00,,,0.00,Wunderground v.1.15,2013-02-20 05:20:00,
2013-02-20 00:21:00,33.7,32.9,29.65,SSE,166,0.0,0.0,97,0.00,,,0.00,Wunderground v.1.15,2013-02-20 05:21:00,
2013-02-20 00:22:00,33.7,32.9,29.65,SSE,166,0.0,0.0,97,0.00,,,0.00,Wunderground v.1.15,2013-02-20 05:22:00,
2013-02-20 00:25:00,33.6,32.8,29.65,SSE,166,0.0,0.0,97,0.00,,,0.00,Wunderground v.1.15,2013-02-20 05:25:00,
2013-02-20 00:26:00,33.6,32.8,29.65,SSE,166,0.0,0.0,97,0.00,,,0.00,Wunderground v.1.15,2013-02-20 05:26:00,
2013-02-20 00:27:00,33.6,32.8,29.65,SSE,166,0.0,0.0,97,0.00,,,0.00,Wunderground v.1.15,2013-02-20 05:27:00,
2013-02-20 00:30:00,33.5,32.7,29.65,SSE,167,0.0,0.0,97,0.00,,,0.00,Wunderground v.1.15,2013-02-20 05:30:00,
2013-02-20 00:32:00,33.5,32.7,29.65,WSW,246,1.0,1.0,97,0.00,,,0.00,Wunderground v.1.15,2013-02-20 05:32:00,
2013-02-20 00:34:00,33.6,32.8,29.65,WSW,246,0.0,1.0,97,0.00,,,0.00,Wunderground v.1.15,2013-02-20 05:34:00,
2013-02-20 00:36:00,33.6,32.8,29.65,SW,217,2.0,2.0,97,0.00,,,0.00,Wunderground v.1.15,2013-02-20 05:36:00,
2013-02-20 00:39:00,33.7,32.9,29.65,WSW,242,0.0,2.0,97,0.00,,,0.00,Wunderground v.1.15,2013-02-20 05:39:00,
2013-02-20 00:41:00,33.7,32.9,29.65,WSW,243,2.0,2.0,97,0.00,,,0.00,Wunderground v.1.15,2013-02-20 05:41:00,
2013-02-20 00:44:00,33.6,32.8,29.65,WSW,242,0.0,2.0,97,0.00,,,0.00,Wunderground v.1.15,2013-02-20 05:44:00,
2013-02-20 00:47:00,33.5,32.7,29.64,WSW,242,0.0,2.0,97,0.00,,,0.01,Wunderground v.1.15,2013-02-20 05:47:00,
2013-02-20 00:50:00,33.5,32.7,29.64,WSW,257,0.0,0.0,97,0.00,,,0.01,Wunderground v.1.15,2013-02-20 05:50:00,
2013-02-20 00:53:00,33.5,32.7,29.64,WSW,257,0.0,0.0,97,0.00,,,0.01,Wunderground v.1.15,2013-02-20 05:53:00,
2013-02-20 00:55:00,33.5,32.7,29.64,ESE,113,0.0,0.0,97,0.00,,,0.01,Wunderground v.1.15,2013-02-20 05:55:00,
2013-02-20 00:57:00,33.4,32.6,29.64,ESE,113,0.0,0.0,97,0.00,,,0.01,Wunderground v.1.15,2013-02-20 05:57:00,
2013-02-20 01:01:00,33.3,32.5,29.64,ESE,113,0.0,0.0,97,0.00,,,0.01,Wunderground v.1.15,2013-02-20 06:01:00,
2013-02-20 01:02:00,33.3,32.5,29.64,ESE,113,0.0,0.0,97,0.00,,,0.01,Wunderground v.1.15,2013-02-20 06:02:00,
2013-02-20 01:05:00,33.3,32.5,29.63,SW,233,1.0,1.0,97,0.00,,,0.01,Wunderground v.1.15,2013-02-20 06:05:00,
2013-02-20 01:08:00,33.3,32.5,29.63,SW,234,0.0,1.0,97,0.00,,,0.01,Wunderground v.1.15,2013-02-20 06:08:00,
2013-02-20 01:09:00,33.3,32.5,29.63,SW,233,0.0,1.0,97,0.00,,,0.01,Wunderground v.1.15,2013-02-20 06:09:00,
2013-02-20 01:14:00,33.4,32.6,29.63,West,262,2.0,2.0,97,0.00,,,0.01,Wunderground v.1.15,2013-02-20 06:14:00,
2013-02-20 01:17:00,33.3,32.5,29.63,West,273,0.0,2.0,97,0.00,,,0.01,Wunderground v.1.15,2013-02-20 06:17:00,
2013-02-20 01:18:00,33.3,32.5,29.63,West,273,0.0,2.0,97,0.00,,,0.01,Wunderground v.1.15,2013-02-20 06:18:00,
2013-02-20 01:22:00,33.2,32.4,29.63,SSW,204,2.0,2.0,97,0.00,,,0.01,Wunderground v.1.15,2013-02-20 06:22:00,
2013-02-20 01:23:00,33.3,32.5,29.63,West,280,0.0,2.0,97,0.00,,,0.01,Wunderground v.1.15,2013-02-20 06:23:00,
2013-02-20 01:27:00,33.2,32.4,29.62,ESE,115,0.0,2.0,97,0.00,,,0.01,Wunderground v.1.15,2013-02-20 06:27:00,
2013-02-20 01:29:00,33.2,32.4,29.63,WSW,243,1.0,2.0,97,0.00,,,0.01,Wunderground v.1.15,2013-02-20 06:29:00,
2013-02-20 01:33:00,33.1,32.3,29.63,WSW,240,0.0,0.0,97,0.00,,,0.01,Wunderground v.1.15,2013-02-20 06:33:00,
2013-02-20 01:34:00,33.1,32.3,29.63,SSW,205,1.0,1.0,97,0.00,,,0.01,Wunderground v.1.15,2013-02-20 06:34:00,
2013-02-20 01:35:00,33.1,32.3,29.63,SW,215,3.0,3.0,97,0.00,,,0.01,Wunderground v.1.15,2013-02-20 06:35:00,
2013-02-20 01:40:00,33.2,32.4,29.63,WSW,245,1.0,6.0,97,0.00,,,0.01,Wunderground v.1.15,2013-02-20 06:40:00,
2013-02-20 01:41:00,33.2,32.4,29.64,West,277,0.0,1.0,97,0.00,,,0.01,Wunderground v.1.15,2013-02-20 06:41:00,
2013-02-20 01:42:00,33.2,32.4,29.64,West,277,0.0,1.0,97,0.00,,,0.01,Wunderground v.1.15,2013-02-20 06:42:00,
2013-02-20 01:46:00,33.2,32.4,29.64,SW,236,1.0,1.0,97,0.00,,,0.01,Wunderground v.1.15,2013-02-20 06:46:00,
2013-02-20 01:47:00,33.2,32.4,29.63,WSW,242,0.0,1.0,97,0.00,,,0.01,Wunderground v.1.15,2013-02-20 06:47:00,
2013-02-20 01:49:00,33.2,32.4,29.63,WSW,251,1.0,1.0,97,0.00,,,0.01,Wunderground v.1.15,2013-02-20 06:49:00,
2013-02-20 01:52:00,33.1,32.3,29.63,SW,228,0.0,0.0,97,0.00,,,0.01,Wunderground v.1.15,2013-02-20 06:52:00,
2013-02-20 01:54:00,33.1,32.3,29.63,East,99,1.0,1.0,97,0.00,,,0.01,Wunderground v.1.15,2013-02-20 06:54:00,
2013-02-20 01:58:00,33.1,32.3,29.63,East,98,0.0,1.0,97,0.00,,,0.01,Wunderground v.1.15,2013-02-20 06:58:00,
2013-02-20 01:59:00,33.1,32.3,29.63,SE,146,0.0,1.0,97,0.00,,,0.01,Wunderground v.1.15,2013-02-20 06:59:00,
2013-02-20 02:02:00,33.0,32.2,29.63,SW,217,2.0,2.0,97,0.00,,,0.01,Wunderground v.1.15,2013-02-20 07:02:00,
2013-02-20 02:03:00,33.0,32.2,29.62,West,278,2.0,5.0,97,0.00,,,0.01,Wunderground v.1.15,2013-02-20 07:03:00,
2013-02-20 02:04:00,33.0,32.2,29.63,WSW,238,0.0,5.0,97,0.00,,,0.01,Wunderground v.1.15,2013-02-20 07:04:00,
2013-02-20 02:07:00,32.9,32.1,29.63,WSW,249,1.0,5.0,97,0.00,,,0.01,Wunderground v.1.15,2013-02-20 07:07:00,
2013-02-20 02:08:00,32.9,32.1,29.63,SSW,198,0.0,5.0,97,0.00,,,0.01,Wunderground v.1.15,2013-02-20 07:08:00,
2013-02-20 02:09:00,32.9,32.1,29.63,WSW,243,0.0,5.0,97,0.00,,,0.01,Wunderground v.1.15,2013-02-20 07:09:00,
2013-02-20 02:12:00,32.9,32.1,29.63,WSW,255,0.0,2.0,97,0.00,,,0.01,Wunderground v.1.15,2013-02-20 07:12:00,
2013-02-20 02:13:00,32.9,32.1,29.62,SW,229,2.0,2.0,97,0.00,,,0.01,Wunderground v.1.15,2013-02-20 07:13:00,
2013-02-20 02:14:00,32.9,32.1,29.62,WSW,255,0.0,3.0,97,0.00,,,0.01,Wunderground v.1.15,2013-02-20 07:14:00,
2013-02-20 02:17:00,32.9,32.1,29.62,West,278,0.0,3.0,97,0.00,,,0.01,Wunderground v.1.15,2013-02-20 07:17:00,
2013-02-20 02:18:00,32.9,32.1,29.62,SSW,197,1.0,3.0,97,0.00,,,0.01,Wunderground v.1.15,2013-02-20 07:18:00,
2013-02-20 02:19:00,32.9,32.1,29.62,SSW,207,0.0,3.0,97,0.00,,,0.01,Wunderground v.1.15,2013-02-20 07:19:00,
2013-02-20 02:22:00,32.8,32.0,29.62,WSW,252,5.0,8.0,97,0.00,,,0.01,Wunderground v.1.15,2013-02-20 07:22:00,
2013-02-20 02:23:00,32.8,32.0,29.62,West,262,3.0,8.0,97,0.00,,,0.01,Wunderground v.1.15,2013-02-20 07:23:00,
2013-02-20 02:24:00,32.8,31.8,29.62,SW,233,4.0,8.0,96,0.00,,,0.01,Wunderground v.1.15,2013-02-20 07:24:00,
2013-02-20 02:28:00,32.7,31.7,29.62,SSW,204,3.0,8.0,96,0.00,,,0.01,Wunderground v.1.15,2013-02-20 07:28:00,
2013-02-20 02:29:00,32.7,31.7,29.62,SE,134,1.0,8.0,96,0.00,,,0.01,Wunderground v.1.15,2013-02-20 07:29:00,
2013-02-20 02:33:00,32.6,31.6,29.63,East,98,2.0,6.0,96,0.00,,,0.01,Wunderground v.1.15,2013-02-20 07:33:00,
2013-02-20 02:34:00,32.5,31.5,29.62,WNW,285,3.0,8.0,96,0.00,,,0.01,Wunderground v.1.15,2013-02-20 07:34:00,
2013-02-20 02:38:00,32.3,31.0,29.62,WSW,246,2.0,8.0,95,0.00,,,0.01,Wunderground v.1.15,2013-02-20 07:38:00,
2013-02-20 02:39:00,32.2,30.9,29.62,WSW,252,1.0,8.0,95,0.00,,,0.01,Wunderground v.1.15,2013-02-20 07:39:00,
2013-02-20 02:43:00,32.0,30.7,29.63,West,266,2.0,4.0,95,0.00,,,0.01,Wunderground v.1.15,2013-02-20 07:43:00,
2013-02-20 02:44:00,31.9,30.4,29.63,SW,235,3.0,5.0,94,0.00,,,0.01,Wunderground v.1.15,2013-02-20 07:44:00,
2013-02-20 02:48:00,31.7,30.2,29.63,SSE,163,0.0,7.0,94,0.00,,,0.01,Wunderground v.1.15,2013-02-20 07:48:00,
2013-02-20 02:49:00,31.6,30.1,29.63,ESE,116,1.0,7.0,94,0.00,,,0.01,Wunderground v.1.15,2013-02-20 07:49:00,
2013-02-20 02:50:00,31.6,30.1,29.63,ESE,115,1.0,7.0,94,0.00,,,0.01,Wunderground v.1.15,2013-02-20 07:50:00,
2013-02-20 02:53:00,31.5,30.0,29.63,West,263,2.0,3.0,94,0.00,,,0.01,Wunderground v.1.15,2013-02-20 07:53:00,
2013-02-20 02:54:00,31.4,29.9,29.63,SSW,205,3.0,4.0,94,0.00,,,0.01,Wunderground v.1.15,2013-02-20 07:54:00,
2013-02-20 02:55:00,31.4,29.9,29.63,SW,214,2.0,4.0,94,0.00,,,0.01,Wunderground v.1.15,2013-02-20 07:55:00,
2013-02-20 02:58:00,31.2,29.7,29.63,SW,224,3.0,6.0,94,0.00,,,0.01,Wunderground v.1.15,2013-02-20 07:58:00,
2013-02-20 02:59:00,31.1,29.3,29.63,SSE,153,1.0,6.0,93,0.00,,,0.01,Wunderground v.1.15,2013-02-20 07:59:00,
2013-02-20 03:00:00,31.0,29.2,29.63,West,266,2.0,2.0,93,0.00,,,0.01,Wunderground v.1.15,2013-02-20 08:00:00,
2013-02-20 03:05:00,30.8,29.0,29.63,WSW,257,6.0,6.0,93,0.00,,,0.01,Wunderground v.1.15,2013-02-20 08:05:00,
2013-02-20 03:10:00,30.5,28.7,29.63,SW,227,1.0,3.0,93,0.00,,,0.01,Wunderground v.1.15,2013-02-20 08:10:00,
2013-02-20 03:15:00,30.4,28.6,29.63,SE,125,5.0,5.0,93,0.00,,,0.01,Wunderground v.1.15,2013-02-20 08:15:00,
2013-02-20 03:20:00,30.2,28.2,29.63,ENE,77,0.0,3.0,92,0.00,,,0.01,Wunderground v.1.15,2013-02-20 08:20:00,
2013-02-20 03:25:00,30.1,28.1,29.63,WNW,285,2.0,6.0,92,0.00,,,0.01,Wunderground v.1.15,2013-02-20 08:25:00,
2013-02-20 03:26:00,30.1,28.1,29.63,SSW,198,3.0,6.0,92,0.00,,,0.01,Wunderground v.1.15,2013-02-20 08:26:00,
2013-02-20 03:30:00,29.9,27.9,29.63,South,184,4.0,4.0,92,0.00,,,0.01,Wunderground v.1.15,2013-02-20 08:30:00,
2013-02-20 03:31:00,29.9,27.9,29.63,WSW,243,2.0,6.0,92,0.00,,,0.01,Wunderground v.1.15,2013-02-20 08:31:00,
2013-02-20 03:35:00,29.8,27.8,29.63,SSW,210,1.0,6.0,92,0.00,,,0.01,Wunderground v.1.15,2013-02-20 08:35:00,
2013-02-20 03:36:00,29.8,27.8,29.63,West,278,3.0,6.0,92,0.00,,,0.01,Wunderground v.1.15,2013-02-20 08:36:00,
2013-02-20 03:37:00,29.8,27.8,29.63,West,281,2.0,6.0,92,0.00,,,0.01,Wunderground v.1.15,2013-02-20 08:37:00,
2013-02-20 03:40:00,29.8,27.8,29.63,West,274,1.0,2.0,92,0.00,,,0.01,Wunderground v.1.15,2013-02-20 08:40:00,
2013-02-20 03:41:00,29.7,27.7,29.63,East,82,1.0,2.0,92,0.00,,,0.01,Wunderground v.1.15,2013-02-20 08:41:00,
2013-02-20 03:42:00,29.7,27.7,29.63,WSW,243,4.0,4.0,92,0.00,,,0.01,Wunderground v.1.15,2013-02-20 08:42:00,
2013-02-20 03:45:00,29.6,27.8,29.63,SW,222,1.0,4.0,93,0.00,,,0.01,Wunderground v.1.15,2013-02-20 08:45:00,
2013-02-20 03:46:00,29.6,27.8,29.63,WSW,256,1.0,4.0,93,0.00,,,0.01,Wunderground v.1.15,2013-02-20 08:46:00,
2013-02-20 03:47:00,29.6,27.6,29.63,SSE,158,0.0,4.0,92,0.00,,,0.01,Wunderground v.1.15,2013-02-20 08:47:00,
2013-02-20 03:50:00,29.6,27.6,29.63,ENE,77,0.0,4.0,92,0.00,,,0.01,Wunderground v.1.15,2013-02-20 08:50:00,
2013-02-20 03:51:00,29.6,27.6,29.63,West,269,1.0,4.0,92,0.00,,,0.01,Wunderground v.1.15,2013-02-20 08:51:00,
2013-02-20 03:52:00,29.5,27.5,29.63,SW,231,1.0,4.0,92,0.00,,,0.01,Wunderground v.1.15,2013-02-20 08:52:00,
2013-02-20 03:55:00,29.5,27.5,29.63,SW,235,1.0,5.0,92,0.00,,,0.01,Wunderground v.1.15,2013-02-20 08:55:00,
2013-02-20 03:56:00,29.6,27.6,29.63,SW,224,2.0,5.0,92,0.00,,,0.01,Wunderground v.1.15,2013-02-20 08:56:00,
2013-02-20 03:57:00,29.6,27.6,29.63,ESE,103,0.0,5.0,92,0.00,,,0.01,Wunderground v.1.15,2013-02-20 08:57:00,
2013-02-20 04:01:00,29.5,27.5,29.64,South,174,3.0,3.0,92,0.00,,,0.01,Wunderground v.1.15,2013-02-20 09:01:00,
2013-02-20 04:03:00,29.5,27.5,29.64,WSW,252,1.0,3.0,92,0.00,,,0.01,Wunderground v.1.15,2013-02-20 09:03:00,
2013-02-20 04:07:00,29.4,27.1,29.64,WSW,255,2.0,5.0,91,0.00,,,0.01,Wunderground v.1.15,2013-02-20 09:07:00,
2013-02-20 04:08:00,29.4,27.1,29.64,West,274,1.0,5.0,91,0.00,,,0.01,Wunderground v.1.15,2013-02-20 09:08:00,
2013-02-20 04:12:00,29.3,27.0,29.64,ENE,58,2.0,4.0,91,0.00,,,0.01,Wunderground v.1.15,2013-02-20 09:12:00,
2013-02-20 04:13:00,29.3,27.0,29.65,SW,236,8.0,10.0,91,0.00,,,0.01,Wunderground v.1.15,2013-02-20 09:13:00,
2013-02-20 04:17:00,29.2,26.9,29.65,WSW,238,2.0,12.0,91,0.00,,,0.01,Wunderground v.1.15,2013-02-20 09:17:00,
2013-02-20 04:18:00,29.2,26.6,29.65,SW,232,1.0,12.0,90,0.00,,,0.01,Wunderground v.1.15,2013-02-20 09:18:00,
2013-02-20 04:22:00,29.1,26.5,29.65,WSW,249,1.0,4.0,90,0.00,,,0.01,Wunderground v.1.15,2013-02-20 09:22:00,
2013-02-20 04:23:00,29.1,26.5,29.65,SW,235,4.0,8.0,90,0.00,,,0.01,Wunderground v.1.15,2013-02-20 09:23:00,
2013-02-20 04:27:00,29.0,26.2,29.65,WSW,248,2.0,10.0,89,0.00,,,0.01,Wunderground v.1.15,2013-02-20 09:27:00,
2013-02-20 04:28:00,28.9,26.1,29.65,NNW,342,1.0,10.0,89,0.00,,,0.01,Wunderground v.1.15,2013-02-20 09:28:00,
2013-02-20 04:32:00,28.8,26.0,29.66,SW,228,0.0,5.0,89,0.00,,,0.01,Wunderground v.1.15,2013-02-20 09:32:00,
2013-02-20 04:33:00,28.8,26.0,29.66,SW,228,0.0,5.0,89,0.00,,,0.01,Wunderground v.1.15,2013-02-20 09:33:00,
2013-02-20 04:37:00,28.7,25.9,29.66,ESE,119,1.0,5.0,89,0.00,,,0.01,Wunderground v.1.15,2013-02-20 09:37:00,
2013-02-20 04:38:00,28.7,25.9,29.66,ESE,118,0.0,5.0,89,0.00,,,0.01,Wunderground v.1.15,2013-02-20 09:38:00,
2013-02-20 04:42:00,28.6,25.8,29.66,ESE,111,2.0,6.0,89,0.00,,,0.01,Wunderground v.1.15,2013-02-20 09:42:00,
2013-02-20 04:43:00,28.6,25.8,29.66,SSE,160,0.0,6.0,89,0.00,,,0.01,Wunderground v.1.15,2013-02-20 09:43:00,
2013-02-20 04:45:00,28.6,26.0,29.66,ENE,70,2.0,6.0,90,0.00,,,0.01,Wunderground v.1.15,2013-02-20 09:45:00,
2013-02-20 04:46:00,28.6,26.0,29.66,South,190,1.0,6.0,90,0.00,,,0.01,Wunderground v.1.15,2013-02-20 09:46:00,
2013-02-20 04:48:00,28.5,25.9,29.66,SW,216,0.0,6.0,90,0.00,,,0.01,Wunderground v.1.15,2013-02-20 09:48:00,
2013-02-20 04:51:00,28.5,25.9,29.66,SSW,210,1.0,2.0,90,0.00,,,0.01,Wunderground v.1.15,2013-02-20 09:51:00,
2013-02-20 04:52:00,28.5,25.9,29.66,West,259,3.0,6.0,90,0.00,,,0.01,Wunderground v.1.15,2013-02-20 09:52:00,
2013-02-20 04:53:00,28.4,25.6,29.66,West,266,2.0,6.0,89,0.00,,,0.01,Wunderground v.1.15,2013-02-20 09:53:00,
2013-02-20 04:57:00,28.2,25.4,29.65,WSW,245,2.0,6.0,89,0.00,,,0.01,Wunderground v.1.15,2013-02-20 09:57:00,
2013-02-20 04:58:00,28.2,25.4,29.65,SSW,195,2.0,6.0,89,0.00,,,0.01,Wunderground v.1.15,2013-02-20 09:58:00,
2013-02-20 04:59:00,28.2,25.4,29.65,West,273,2.0,6.0,89,0.00,,,0.01,Wunderground v.1.15,2013-02-20 09:59:00,
2013-02-20 05:03:00,28.0,24.9,29.65,SW,232,5.0,5.0,88,0.00,,,0.01,Wunderground v.1.15,2013-02-20 10:03:00,
2013-02-20 05:04:00,27.9,24.8,29.65,WSW,238,2.0,5.0,88,0.00,,,0.01,Wunderground v.1.15,2013-02-20 10:04:00,
2013-02-20 05:05:00,27.8,24.7,29.65,WSW,257,2.0,5.0,88,0.00,,,0.01,Wunderground v.1.15,2013-02-20 10:05:00,
2013-02-20 05:08:00,27.7,24.6,29.65,West,259,5.0,6.0,88,0.00,,,0.01,Wunderground v.1.15,2013-02-20 10:08:00,
2013-02-20 05:09:00,27.7,24.6,29.65,South,179,2.0,6.0,88,0.00,,,0.01,Wunderground v.1.15,2013-02-20 10:09:00,
2013-02-20 05:11:00,27.6,24.5,29.65,SW,217,2.0,5.0,88,0.00,,,0.01,Wunderground v.1.15,2013-02-20 10:11:00,
2013-02-20 05:14:00,27.5,24.4,29.65,SE,129,2.0,6.0,88,0.00,,,0.01,Wunderground v.1.15,2013-02-20 10:14:00,
2013-02-20 05:15:00,27.4,24.3,29.65,WSW,245,2.0,6.0,88,0.00,,,0.01,Wunderground v.1.15,2013-02-20 10:15:00,
2013-02-20 05:19:00,27.3,24.2,29.65,WSW,242,5.0,6.0,88,0.00,,,0.01,Wunderground v.1.15,2013-02-20 10:19:00,
2013-02-20 05:20:00,27.2,23.8,29.65,WNW,289,2.0,3.0,87,0.00,,,0.01,Wunderground v.1.15,2013-02-20 10:20:00,
2013-02-20 05:21:00,27.1,23.7,29.65,SSW,207,3.0,6.0,87,0.00,,,0.01,Wunderground v.1.15,2013-02-20 10:21:00,
2013-02-20 05:24:00,27.0,23.6,29.65,West,267,3.0,6.0,87,0.00,,,0.01,Wunderground v.1.15,2013-02-20 10:24:00,
2013-02-20 05:25:00,27.0,23.6,29.65,West,265,4.0,6.0,87,0.00,,,0.01,Wunderground v.1.15,2013-02-20 10:25:00,
2013-02-20 05:26:00,26.9,23.5,29.65,SW,217,1.0,7.0,87,0.00,,,0.01,Wunderground v.1.15,2013-02-20 10:26:00,
2013-02-20 05:29:00,26.8,23.4,29.65,SE,135,2.0,7.0,87,0.00,,,0.01,Wunderground v.1.15,2013-02-20 10:29:00,
2013-02-20 05:30:00,26.8,23.4,29.66,SW,229,3.0,3.0,87,0.00,,,0.01,Wunderground v.1.15,2013-02-20 10:30:00,
2013-02-20 05:31:00,26.7,23.4,29.66,West,273,1.0,3.0,87,0.00,,,0.01,Wunderground v.1.15,2013-02-20 10:31:00,
2013-02-20 05:35:00,26.5,22.9,29.66,West,276,1.0,8.0,86,0.00,,,0.01,Wunderground v.1.15,2013-02-20 10:35:00,
2013-02-20 05:36:00,26.5,23.2,29.66,West,278,1.0,8.0,87,0.00,,,0.01,Wunderground v.1.15,2013-02-20 10:36:00,
2013-02-20 05:38:00,26.4,23.1,29.66,WNW,288,1.0,8.0,87,0.00,,,0.01,Wunderground v.1.15,2013-02-20 10:38:00,
2013-02-20 05:40:00,26.3,23.0,29.66,WNW,288,1.0,2.0,87,0.00,,,0.01,Wunderground v.1.15,2013-02-20 10:40:00,
2013-02-20 05:41:00,26.2,22.9,29.66,SSW,199,0.0,2.0,87,0.00,,,0.01,Wunderground v.1.15,2013-02-20 10:41:00,
2013-02-20 05:43:00,26.2,22.9,29.66,NE,41,2.0,4.0,87,0.00,,,0.01,Wunderground v.1.15,2013-02-20 10:43:00,
2013-02-20 05:45:00,26.1,23.0,29.66,SW,235,3.0,4.0,88,0.00,,,0.01,Wunderground v.1.15,2013-02-20 10:45:00,
2013-02-20 05:47:00,26.0,22.7,29.66,WSW,238,4.0,5.0,87,0.00,,,0.01,Wunderground v.1.15,2013-02-20 10:47:00,
2013-02-20 05:48:00,26.0,22.7,29.66,West,281,2.0,5.0,87,0.00,,,0.01,Wunderground v.1.15,2013-02-20 10:48:00,
2013-02-20 05:50:00,25.9,22.6,29.66,SSE,150,2.0,2.0,87,0.00,,,0.01,Wunderground v.1.15,2013-02-20 10:50:00,
2013-02-20 05:52:00,25.9,22.3,29.66,SW,215,2.0,4.0,86,0.00,,,0.01,Wunderground v.1.15,2013-02-20 10:52:00,
2013-02-20 05:53:00,25.9,22.3,29.65,WSW,249,3.0,4.0,86,0.00,,,0.01,Wunderground v.1.15,2013-02-20 10:53:00,
2013-02-20 05:54:00,25.9,22.3,29.66,SW,224,4.0,5.0,86,0.00,,,0.01,Wunderground v.1.15,2013-02-20 10:54:00,
2013-02-20 05:55:00,25.8,22.2,29.66,SSE,160,3.0,5.0,86,0.00,,,0.01,Wunderground v.1.15,2013-02-20 10:55:00,
2013-02-20 05:57:00,25.7,22.1,29.65,West,278,7.0,7.0,86,0.00,,,0.01,Wunderground v.1.15,2013-02-20 10:57:00,
2013-02-20 05:58:00,25.7,21.8,29.66,SW,232,4.0,7.0,85,0.00,,,0.01,Wunderground v.1.15,2013-02-20 10:58:00,
2013-02-20 06:00:00,25.6,22.0,29.66,NNW,334,3.0,3.0,86,0.00,,,0.01,Wunderground v.1.15,2013-02-20 11:00:00,
2013-02-20 06:02:00,25.6,21.7,29.66,ENE,61,1.0,3.0,85,0.00,,,0.01,Wunderground v.1.15,2013-02-20 11:02:00,
2013-02-20 06:03:00,25.5,21.3,29.66,WSW,240,2.0,3.0,84,0.00,,,0.01,Wunderground v.1.15,2013-02-20 11:03:00,
2013-02-20 06:05:00,25.5,21.3,29.66,SW,223,3.0,3.0,84,0.00,,,0.01,Wunderground v.1.15,2013-02-20 11:05:00,
2013-02-20 06:07:00,25.4,21.2,29.66,West,267,3.0,5.0,84,0.00,,,0.01,Wunderground v.1.15,2013-02-20 11:07:00,
2013-02-20 06:09:00,25.3,21.4,29.66,SE,128,1.0,5.0,85,0.00,,,0.01,Wunderground v.1.15,2013-02-20 11:09:00,
2013-02-20 06:10:00,25.3,21.4,29.66,ESE,119,0.0,2.0,85,0.00,,,0.01,Wunderground v.1.15,2013-02-20 11:10:00,
2013-02-20 06:12:00,25.3,21.7,29.66,West,263,1.0,4.0,86,0.00,,,0.01,Wunderground v.1.15,2013-02-20 11:12:00,
2013-02-20 06:14:00,25.2,21.6,29.66,West,270,2.0,7.0,86,0.00,,,0.01,Wunderground v.1.15,2013-02-20 11:14:00,
2013-02-20 06:15:00,25.2,21.6,29.66,South,186,2.0,7.0,86,0.00,,,0.01,Wunderground v.1.15,2013-02-20 11:15:00,
2013-02-20 06:17:00,25.1,20.9,29.66,West,262,1.0,11.0,84,0.00,,,0.01,Wunderground v.1.15,2013-02-20 11:17:00,
2013-02-20 06:19:00,25.1,21.2,29.66,SW,236,1.0,11.0,85,0.00,,,0.01,Wunderground v.1.15,2013-02-20 11:19:00,
2013-02-20 06:20:00,25.1,21.2,29.66,West,264,4.0,5.0,85,0.00,,,0.01,Wunderground v.1.15,2013-02-20 11:20:00,
2013-02-20 06:22:00,25.1,21.2,29.66,WSW,249,0.0,6.0,85,0.00,,,0.01,Wunderground v.1.15,2013-02-20 11:22:00,
2013-02-20 06:23:00,25.0,21.4,29.66,SW,229,2.0,6.0,86,0.00,,,0.01,Wunderground v.1.15,2013-02-20 11:23:00,
2013-02-20 06:24:00,25.0,21.1,29.66,SW,236,0.0,6.0,85,0.00,,,0.01,Wunderground v.1.15,2013-02-20 11:24:00,
2013-02-20 06:25:00,25.0,21.4,29.66,East,85,3.0,6.0,86,0.00,,,0.01,Wunderground v.1.15,2013-02-20 11:25:00,
2013-02-20 06:27:00,24.9,21.3,29.66,West,273,2.0,6.0,86,0.00,,,0.01,Wunderground v.1.15,2013-02-20 11:27:00,
2013-02-20 06:28:00,24.9,21.0,29.67,WNW,290,0.0,6.0,85,0.00,,,0.01,Wunderground v.1.15,2013-02-20 11:28:00,
2013-02-20 06:30:00,24.9,21.0,29.66,East,89,0.0,1.0,85,0.00,,,0.01,Wunderground v.1.15,2013-02-20 11:30:00,
2013-02-20 06:32:00,24.9,21.0,29.67,WSW,255,1.0,3.0,85,0.00,,,0.01,Wunderground v.1.15,2013-02-20 11:32:00,
2013-02-20 06:33:00,24.8,20.9,29.67,SE,138,1.0,3.0,85,0.00,,,0.01,Wunderground v.1.15,2013-02-20 11:33:00,
2013-02-20 06:35:00,24.9,21.3,29.67,ESE,115,3.0,5.0,86,0.00,,,0.01,Wunderground v.1.15,2013-02-20 11:35:00,
2013-02-20 06:37:00,24.8,20.9,29.67,SW,223,1.0,5.0,85,0.00,,,0.01,Wunderground v.1.15,2013-02-20 11:37:00,
2013-02-20 06:38:00,24.8,20.9,29.67,ESE,103,0.0,5.0,85,0.00,,,0.01,Wunderground v.1.15,2013-02-20 11:38:00,
2013-02-20 06:40:00,24.8,21.2,29.67,WNW,285,2.0,2.0,86,0.00,,,0.01,Wunderground v.1.15,2013-02-20 11:40:00,
2013-02-20 06:42:00,24.7,20.8,29.67,West,281,1.0,3.0,85,0.00,,,0.01,Wunderground v.1.15,2013-02-20 11:42:00,
2013-02-20 06:43:00,24.7,20.8,29.67,WSW,245,2.0,3.0,85,0.00,,,0.01,Wunderground v.1.15,2013-02-20 11:43:00,
2013-02-20 06:45:00,24.6,20.5,29.67,West,266,1.0,7.0,84,0.00,,,0.01,Wunderground v.1.15,2013-02-20 11:45:00,
2013-02-20 06:46:00,24.6,20.5,29.67,West,265,0.0,7.0,84,0.00,,,0.01,Wunderground v.1.15,2013-02-20 11:46:00,
2013-02-20 06:47:00,24.6,20.7,29.67,WSW,243,0.0,7.0,85,0.00,,,0.01,Wunderground v.1.15,2013-02-20 11:47:00,
2013-02-20 06:48:00,24.6,20.7,29.67,WSW,243,0.0,7.0,85,0.00,,,0.01,Wunderground v.1.15,2013-02-20 11:48:00,
2013-02-20 06:50:00,24.5,20.4,29.67,SW,231,4.0,5.0,84,0.00,,,0.01,Wunderground v.1.15,2013-02-20 11:50:00,
2013-02-20 06:51:00,24.5,20.4,29.67,West,271,8.0,10.0,84,0.00,,,0.01,Wunderground v.1.15,2013-02-20 11:51:00,
2013-02-20 06:52:00,24.5,20.1,29.67,West,273,2.0,10.0,83,0.00,,,0.01,Wunderground v.1.15,2013-02-20 11:52:00,
2013-02-20 06:54:00,24.4,20.3,29.67,WNW,291,1.0,10.0,84,0.00,,,0.01,Wunderground v.1.15,2013-02-20 11:54:00,
2013-02-20 06:55:00,24.3,20.2,29.67,SW,219,3.0,10.0,84,0.00,,,0.01,Wunderground v.1.15,2013-02-20 11:55:00,
2013-02-20 06:56:00,24.3,19.9,29.67,West,267,1.0,10.0,83,0.00,,,0.01,Wunderground v.1.15,2013-02-20 11:56:00,
2013-02-20 06:57:00,24.2,20.1,29.67,West,266,0.0,10.0,84,0.00,,,0.01,Wunderground v.1.15,2013-02-20 11:57:00,
2013-02-20 06:59:00,24.2,20.1,29.67,SW,224,1.0,10.0,84,0.00,,,0.01,Wunderground v.1.15,2013-02-20 11:59:00,
2013-02-20 07:01:00,24.2,20.1,29.67,SSW,207,2.0,2.0,84,0.00,,,0.01,Wunderground v.1.15,2013-02-20 12:01:00,
2013-02-20 07:03:00,24.1,20.0,29.67,SSW,207,0.0,2.0,84,0.00,,,0.01,Wunderground v.1.15,2013-02-20 12:03:00,
2013-02-20 07:04:00,24.1,20.0,29.67,SW,228,0.0,2.0,84,0.00,,,0.01,Wunderground v.1.15,2013-02-20 12:04:00,
2013-02-20 07:06:00,24.0,19.9,29.67,SW,231,1.0,2.0,84,0.00,,,0.01,Wunderground v.1.15,2013-02-20 12:06:00,
2013-02-20 07:08:00,24.1,20.0,29.67,SW,229,0.0,2.0,84,0.00,,,0.01,Wunderground v.1.15,2013-02-20 12:08:00,
2013-02-20 07:09:00,24.1,20.0,29.67,WSW,243,2.0,2.0,84,0.00,,,0.01,Wunderground v.1.15,2013-02-20 12:09:00,
2013-02-20 07:11:00,24.1,20.0,29.67,WSW,252,2.0,3.0,84,0.00,,,0.01,Wunderground v.1.15,2013-02-20 12:11:00,
2013-02-20 07:12:00,24.1,20.0,29.67,SW,219,2.0,3.0,84,0.00,,,0.01,Wunderground v.1.15,2013-02-20 12:12:00,
2013-02-20 07:13:00,24.1,20.2,29.67,SW,224,2.0,6.0,85,0.00,,,0.01,Wunderground v.1.15,2013-02-20 12:13:00,
2013-02-20 07:14:00,24.1,20.0,29.67,WSW,249,2.0,6.0,84,0.00,,,0.01,Wunderground v.1.15,2013-02-20 12:14:00,
2013-02-20 07:16:00,24.2,20.1,29.67,SW,235,7.0,7.0,84,0.00,,,0.01,Wunderground v.1.15,2013-02-20 12:16:00,
2013-02-20 07:17:00,24.2,20.1,29.67,West,273,4.0,7.0,84,0.00,,,0.01,Wunderground v.1.15,2013-02-20 12:17:00,
2013-02-20 07:18:00,24.3,20.2,29.67,WSW,242,1.0,7.0,84,0.00,,,0.01,Wunderground v.1.15,2013-02-20 12:18:00,
2013-02-20 07:19:00,24.3,20.2,29.67,WSW,243,0.0,7.0,84,0.00,,,0.01,Wunderground v.1.15,2013-02-20 12:19:00,
2013-02-20 07:21:00,24.3,20.2,29.67,West,260,1.0,3.0,84,0.00,,,0.01,Wunderground v.1.15,2013-02-20 12:21:00,
2013-02-20 07:22:00,24.3,20.2,29.67,West,259,1.0,3.0,84,0.00,,,0.01,Wunderground v.1.15,2013-02-20 12:22:00,
2013-02-20 07:23:00,24.3,20.2,29.67,SW,229,1.0,4.0,84,0.00,,,0.01,Wunderground v.1.15,2013-02-20 12:23:00,
2013-02-20 07:24:00,24.3,20.2,29.67,SW,224,3.0,4.0,84,0.00,,,0.01,Wunderground v.1.15,2013-02-20 12:24:00,
2013-02-20 07:26:00,24.4,20.0,29.67,WSW,243,1.0,6.0,83,0.00,,,0.01,Wunderground v.1.15,2013-02-20 12:26:00,
2013-02-20 07:27:00,24.4,20.0,29.67,WSW,250,1.0,6.0,83,0.00,,,0.01,Wunderground v.1.15,2013-02-20 12:27:00,
2013-02-20 07:29:00,24.4,20.0,29.67,SW,231,2.0,6.0,83,0.00,,,0.01,Wunderground v.1.15,2013-02-20 12:29:00,
2013-02-20 07:31:00,24.6,20.5,29.67,WSW,240,2.0,8.0,84,0.00,,,0.01,Wunderground v.1.15,2013-02-20 12:31:00,
2013-02-20 07:33:00,24.6,19.9,29.67,WSW,252,1.0,8.0,82,0.00,,,0.01,Wunderground v.1.15,2013-02-20 12:33:00,
2013-02-20 07:34:00,24.6,20.2,29.67,West,264,0.0,8.0,83,0.00,,,0.01,Wunderground v.1.15,2013-02-20 12:34:00,
2013-02-20 07:37:00,24.5,20.4,29.67,SSE,158,2.0,8.0,84,0.00,,,0.01,Wunderground v.1.15,2013-02-20 12:37:00,
2013-02-20 07:38:00,24.5,20.1,29.67,West,271,3.0,8.0,83,0.00,,,0.01,Wunderground v.1.15,2013-02-20 12:38:00,
2013-02-20 07:39:00,24.5,20.1,29.67,SW,214,2.0,8.0,83,0.00,,,0.01,Wunderground v.1.15,2013-02-20 12:39:00,
2013-02-20 07:42:00,24.5,19.8,29.67,WNW,285,1.0,9.0,82,0.00,,,0.01,Wunderground v.1.15,2013-02-20 12:42:00,
2013-02-20 07:43:00,24.5,19.8,29.67,ESE,120,0.0,9.0,82,0.00,,,0.01,Wunderground v.1.15,2013-02-20 12:43:00,
2013-02-20 07:44:00,24.5,20.1,29.67,WSW,249,2.0,9.0,83,0.00,,,0.01,Wunderground v.1.15,2013-02-20 12:44:00,
2013-02-20 07:47:00,24.6,20.2,29.67,WNW,293,2.0,9.0,83,0.00,,,0.01,Wunderground v.1.15,2013-02-20 12:47:00,
2013-02-20 07:48:00,24.6,20.2,29.67,SW,219,3.0,9.0,83,0.00,,,0.01,Wunderground v.1.15,2013-02-20 12:48:00,
2013-02-20 07:49:00,24.6,19.9,29.67,SSW,195,0.0,9.0,82,0.00,,,0.01,Wunderground v.1.15,2013-02-20 12:49:00,
2013-02-20 07:52:00,24.8,20.4,29.67,SW,228,1.0,2.0,83,0.00,,,0.01,Wunderground v.1.15,2013-02-20 12:52:00,
2013-02-20 07:53:00,24.8,20.4,29.67,WSW,249,2.0,2.0,83,0.00,,,0.01,Wunderground v.1.15,2013-02-20 12:53:00,
2013-02-20 07:54:00,24.8,20.1,29.67,SSE,153,5.0,5.0,82,0.00,,,0.01,Wunderground v.1.15,2013-02-20 12:54:00,
2013-02-20 07:55:00,24.8,20.1,29.67,South,184,2.0,5.0,82,0.00,,,0.01,Wunderground v.1.15,2013-02-20 12:55:00,
2013-02-20 07:57:00,24.8,20.1,29.67,SW,214,1.0,5.0,82,0.00,,,0.01,Wunderground v.1.15,2013-02-20 12:57:00,
2013-02-20 07:58:00,24.8,20.1,29.67,South,174,1.0,5.0,82,0.00,,,0.01,Wunderground v.1.15,2013-02-20 12:58:00,
2013-02-20 07:59:00,24.8,20.1,29.67,West,277,4.0,5.0,82,0.00,,,0.01,Wunderground v.1.15,2013-02-20 12:59:00,
2013-02-20 08:00:00,24.8,19.8,29.67,West,266,1.0,2.0,81,0.00,,,0.01,Wunderground v.1.15,2013-02-20 13:00:00,
2013-02-20 08:02:00,24.7,20.0,29.67,South,188,1.0,2.0,82,0.00,,,0.01,Wunderground v.1.15,2013-02-20 13:02:00,
2013-02-20 08:03:00,24.7,20.0,29.67,SW,214,1.0,2.0,82,0.00,,,0.01,Wunderground v.1.15,2013-02-20 13:03:00,
2013-02-20 08:04:00,24.7,20.0,29.67,SW,229,0.0,3.0,82,0.00,,,0.01,Wunderground v.1.15,2013-02-20 13:04:00,
2013-02-20 08:05:00,24.7,20.0,29.67,SW,229,0.0,3.0,82,0.00,,,0.01,Wunderground v.1.15,2013-02-20 13:05:00,
2013-02-20 08:07:00,24.6,19.6,29.67,WNW,294,3.0,7.0,81,0.00,,,0.01,Wunderground v.1.15,2013-02-20 13:07:00,
2013-02-20 08:08:00,24.6,19.9,29.67,SW,219,3.0,7.0,82,0.00,,,0.01,Wunderground v.1.15,2013-02-20 13:08:00,
2013-02-20 08:09:00,24.6,19.6,29.67,West,260,3.0,7.0,81,0.00,,,0.01,Wunderground v.1.15,2013-02-20 13:09:00,
2013-02-20 08:10:00,24.6,19.6,29.68,West,262,3.0,3.0,81,0.00,,,0.01,Wunderground v.1.15,2013-02-20 13:10:00,
2013-02-20 08:12:00,24.6,19.6,29.68,WNW,287,3.0,12.0,81,0.00,,,0.01,Wunderground v.1.15,2013-02-20 13:12:00,
2013-02-20 08:14:00,24.6,19.6,29.68,SSW,195,0.0,12.0,81,0.00,,,0.01,Wunderground v.1.15,2013-02-20 13:14:00,
2013-02-20 08:15:00,24.6,19.6,29.68,SW,234,0.0,12.0,81,0.00,,,0.01,Wunderground v.1.15,2013-02-20 13:15:00,
2013-02-20 08:17:00,24.7,20.0,29.68,WNW,285,1.0,12.0,82,0.00,,,0.01,Wunderground v.1.15,2013-02-20 13:17:00,
2013-02-20 08:19:00,24.8,20.4,29.68,WSW,239,1.0,12.0,83,0.00,,,0.01,Wunderground v.1.15,2013-02-20 13:19:00,
2013-02-20 08:20:00,24.8,20.4,29.68,SW,227,1.0,1.0,83,0.00,,,0.01,Wunderground v.1.15,2013-02-20 13:20:00,
2013-02-20 08:23:00,24.9,19.9,29.68,ESE,119,1.0,5.0,81,0.00,,,0.01,Wunderground v.1.15,2013-02-20 13:23:00,
2013-02-20 08:24:00,24.9,19.9,29.68,South,186,2.0,5.0,81,0.00,,,0.01,Wunderground v.1.15,2013-02-20 13:24:00,
2013-02-20 08:25:00,25.0,20.0,29.68,ESE,108,2.0,5.0,81,0.00,,,0.01,Wunderground v.1.15,2013-02-20 13:25:00,
2013-02-20 08:28:00,25.0,19.7,29.68,SW,236,1.0,5.0,80,0.00,,,0.01,Wunderground v.1.15,2013-02-20 13:28:00,
2013-02-20 08:29:00,25.0,19.7,29.68,WNW,292,0.0,5.0,80,0.00,,,0.01,Wunderground v.1.15,2013-02-20 13:29:00,
2013-02-20 08:30:00,25.1,20.1,29.68,WSW,255,6.0,6.0,81,0.00,,,0.01,Wunderground v.1.15,2013-02-20 13:30:00,
2013-02-20 08:33:00,25.0,19.7,29.68,SW,231,1.0,6.0,80,0.00,,,0.01,Wunderground v.1.15,2013-02-20 13:33:00,
2013-02-20 08:34:00,25.1,19.8,29.68,West,259,3.0,6.0,80,0.00,,,0.01,Wunderground v.1.15,2013-02-20 13:34:00,
2013-02-20 08:35:00,25.1,19.8,29.68,SSE,161,4.0,7.0,80,0.00,,,0.01,Wunderground v.1.15,2013-02-20 13:35:00,
2013-02-20 08:38:00,25.0,19.1,29.68,WNW,294,1.0,8.0,78,0.00,,,0.01,Wunderground v.1.15,2013-02-20 13:38:00,
2013-02-20 08:39:00,25.0,19.7,29.68,WNW,295,1.0,8.0,80,0.00,,,0.01,Wunderground v.1.15,2013-02-20 13:39:00,
2013-02-20 08:40:00,25.0,19.7,29.69,WNW,297,1.0,2.0,80,0.00,,,0.01,Wunderground v.1.15,2013-02-20 13:40:00,
2013-02-20 08:41:00,25.0,20.0,29.68,WSW,249,0.0,2.0,81,0.00,,,0.01,Wunderground v.1.15,2013-02-20 13:41:00,
2013-02-20 08:43:00,25.0,19.4,29.69,SE,132,0.0,3.0,79,0.00,,,0.01,Wunderground v.1.15,2013-02-20 13:43:00,
2013-02-20 08:44:00,25.0,19.1,29.68,WSW,248,3.0,10.0,78,0.00,,,0.01,Wunderground v.1.15,2013-02-20 13:44:00,
2013-02-20 08:45:00,25.0,19.1,29.69,WSW,242,6.0,10.0,78,0.00,,,0.01,Wunderground v.1.15,2013-02-20 13:45:00,
2013-02-20 08:46:00,25.0,19.4,29.69,ESE,122,2.0,10.0,79,0.00,,,0.01,Wunderground v.1.15,2013-02-20 13:46:00,
2013-02-20 08:48:00,25.0,18.8,29.69,WSW,255,4.0,13.0,77,0.00,,,0.01,Wunderground v.1.15,2013-02-20 13:48:00,
2013-02-20 08:49:00,25.0,19.1,29.69,WSW,242,0.0,13.0,78,0.00,,,0.01,Wunderground v.1.15,2013-02-20 13:49:00,
2013-02-20 08:50:00,25.0,19.1,29.69,WSW,243,0.0,3.0,78,0.00,,,0.01,Wunderground v.1.15,2013-02-20 13:50:00,
2013-02-20 08:51:00,25.0,19.1,29.69,ESE,111,1.0,5.0,78,0.00,,,0.01,Wunderground v.1.15,2013-02-20 13:51:00,
2013-02-20 08:53:00,25.1,19.2,29.68,ESE,112,0.0,5.0,78,0.00,,,0.01,Wunderground v.1.15,2013-02-20 13:53:00,
2013-02-20 08:55:00,25.1,19.5,29.68,SSW,203,1.0,5.0,79,0.00,,,0.01,Wunderground v.1.15,2013-02-20 13:55:00,
2013-02-20 08:56:00,25.2,19.3,29.68,WSW,255,2.0,5.0,78,0.00,,,0.01,Wunderground v.1.15,2013-02-20 13:56:00,
2013-02-20 08:58:00,25.2,19.3,29.69,West,277,5.0,7.0,78,0.00,,,0.01,Wunderground v.1.15,2013-02-20 13:58:00,
2013-02-20 09:01:00,25.2,19.0,29.68,West,267,3.0,3.0,77,0.00,,,0.01,Wunderground v.1.15,2013-02-20 14:01:00,
2013-02-20 09:02:00,25.3,19.1,29.68,WNW,287,2.0,3.0,77,0.00,,,0.01,Wunderground v.1.15,2013-02-20 14:02:00,
2013-02-20 09:04:00,25.3,19.1,29.68,West,274,0.0,5.0,77,0.00,,,0.01,Wunderground v.1.15,2013-02-20 14:04:00,
2013-02-20 09:06:00,25.4,19.2,29.69,SW,232,2.0,5.0,77,0.00,,,0.01,Wunderground v.1.15,2013-02-20 14:06:00,
2013-02-20 09:07:00,25.5,19.3,29.68,WSW,238,5.0,5.0,77,0.00,,,0.01,Wunderground v.1.15,2013-02-20 14:07:00,
2013-02-20 09:10:00,25.6,19.1,29.68,ENE,74,2.0,5.0,76,0.00,,,0.01,Wunderground v.1.15,2013-02-20 14:10:00,
2013-02-20 09:11:00,25.7,19.5,29.68,WSW,246,5.0,5.0,77,0.00,,,0.01,Wunderground v.1.15,2013-02-20 14:11:00,
2013-02-20 09:12:00,25.7,19.2,29.68,West,260,4.0,5.0,76,0.00,,,0.01,Wunderground v.1.15,2013-02-20 14:12:00,
2013-02-20 09:15:00,25.7,19.2,29.69,WSW,249,5.0,7.0,76,0.00,,,0.01,Wunderground v.1.15,2013-02-20 14:15:00,
2013-02-20 09:17:00,25.7,19.2,29.69,SE,125,3.0,7.0,76,0.00,,,0.01,Wunderground v.1.15,2013-02-20 14:17:00,
2013-02-20 09:20:00,25.8,19.3,29.69,WSW,255,2.0,12.0,76,0.00,,,0.01,Wunderground v.1.15,2013-02-20 14:20:00,
2013-02-20 09:22:00,25.8,19.3,29.69,SW,232,1.0,5.0,76,0.00,,,0.01,Wunderground v.1.15,2013-02-20 14:22:00,
2013-02-20 09:23:00,25.9,19.1,29.69,SW,231,3.0,5.0,75,0.00,,,0.01,Wunderground v.1.15,2013-02-20 14:23:00,
2013-02-20 09:25:00,26.1,18.9,29.69,SW,233,0.0,9.0,74,0.00,,,0.01,Wunderground v.1.15,2013-02-20 14:25:00,
2013-02-20 09:27:00,26.2,19.4,29.69,WNW,285,1.0,9.0,75,0.00,,,0.01,Wunderground v.1.15,2013-02-20 14:27:00,
2013-02-20 09:28:00,26.3,19.5,29.69,WSW,245,3.0,9.0,75,0.00,,,0.01,Wunderground v.1.15,2013-02-20 14:28:00,
2013-02-20 09:30:00,26.5,19.6,29.69,WSW,246,5.0,9.0,75,0.00,,,0.01,Wunderground v.1.15,2013-02-20 14:30:00,
2013-02-20 09:32:00,26.5,19.3,29.69,West,264,4.0,6.0,74,0.00,,,0.01,Wunderground v.1.15,2013-02-20 14:32:00,
2013-02-20 09:33:00,26.5,19.6,29.69,WSW,248,4.0,6.0,75,0.00,,,0.01,Wunderground v.1.15,2013-02-20 14:33:00,
2013-02-20 09:36:00,26.4,19.5,29.69,WNW,290,2.0,8.0,75,0.00,,,0.01,Wunderground v.1.15,2013-02-20 14:36:00,
2013-02-20 09:37:00,26.3,19.5,29.69,WSW,257,4.0,8.0,75,0.00,,,0.01,Wunderground v.1.15,2013-02-20 14:37:00,
2013-02-20 09:38:00,26.3,19.5,29.69,SW,219,1.0,8.0,75,0.00,,,0.01,Wunderground v.1.15,2013-02-20 14:38:00,
2013-02-20 09:41:00,26.2,19.4,29.69,WSW,246,6.0,6.0,75,0.00,,,0.01,Wunderground v.1.15,2013-02-20 14:41:00,
2013-02-20 09:42:00,26.1,18.9,29.69,WSW,255,4.0,8.0,74,0.00,,,0.01,Wunderground v.1.15,2013-02-20 14:42:00,
2013-02-20 09:43:00,26.1,18.9,29.69,WSW,256,2.0,8.0,74,0.00,,,0.01,Wunderground v.1.15,2013-02-20 14:43:00,
2013-02-20 09:46:00,26.0,19.2,29.69,WSW,255,3.0,8.0,75,0.00,,,0.01,Wunderground v.1.15,2013-02-20 14:46:00,
2013-02-20 09:47:00,26.0,19.5,29.69,West,261,1.0,8.0,76,0.00,,,0.01,Wunderground v.1.15,2013-02-20 14:47:00,
2013-02-20 09:48:00,26.0,19.5,29.69,WSW,240,2.0,8.0,76,0.00,,,0.01,Wunderground v.1.15,2013-02-20 14:48:00,
2013-02-20 09:51:00,25.9,19.1,29.69,WSW,249,3.0,6.0,75,0.00,,,0.01,Wunderground v.1.15,2013-02-20 14:51:00,
2013-02-20 09:52:00,25.8,18.7,29.69,West,259,2.0,12.0,74,0.00,,,0.01,Wunderground v.1.15,2013-02-20 14:52:00,
2013-02-20 09:53:00,25.7,18.9,29.69,WSW,249,3.0,12.0,75,0.00,,,0.01,Wunderground v.1.15,2013-02-20 14:53:00,
2013-02-20 09:56:00,25.5,19.0,29.69,SW,236,5.0,12.0,76,0.00,,,0.01,Wunderground v.1.15,2013-02-20 14:56:00,
2013-02-20 09:57:00,25.5,19.0,29.69,WNW,289,2.0,12.0,76,0.00,,,0.01,Wunderground v.1.15,2013-02-20 14:57:00,
2013-02-20 09:58:00,25.5,19.3,29.69,WSW,249,5.0,12.0,77,0.00,,,0.01,Wunderground v.1.15,2013-02-20 14:58:00,
2013-02-20 10:02:00,25.6,19.4,29.69,SW,218,0.0,3.0,77,0.00,,,0.01,Wunderground v.1.15,2013-02-20 15:02:00,
2013-02-20 10:03:00,25.7,19.8,29.69,SW,218,1.0,3.0,78,0.00,,,0.01,Wunderground v.1.15,2013-02-20 15:03:00,
2013-02-20 10:07:00,25.7,19.2,29.69,WNW,293,3.0,5.0,76,0.00,,,0.01,Wunderground v.1.15,2013-02-20 15:07:00,
2013-02-20 10:08:00,25.7,19.2,29.69,SSW,212,7.0,7.0,76,0.00,,,0.01,Wunderground v.1.15,2013-02-20 15:08:00,
2013-02-20 10:12:00,25.5,18.7,29.69,SSW,201,3.0,9.0,75,0.00,,,0.01,Wunderground v.1.15,2013-02-20 15:12:00,
2013-02-20 10:13:00,25.5,18.7,29.69,West,273,3.0,9.0,75,0.00,,,0.01,Wunderground v.1.15,2013-02-20 15:13:00,
2013-02-20 10:14:00,25.5,18.7,29.69,West,262,5.0,9.0,75,0.00,,,0.01,Wunderground v.1.15,2013-02-20 15:14:00,
2013-02-20 10:17:00,25.4,18.9,29.69,SW,231,3.0,9.0,76,0.00,,,0.01,Wunderground v.1.15,2013-02-20 15:17:00,
2013-02-20 10:18:00,25.4,18.9,29.69,West,276,2.0,9.0,76,0.00,,,0.01,Wunderground v.1.15,2013-02-20 15:18:00,
2013-02-20 10:19:00,25.4,18.6,29.69,WNW,290,1.0,9.0,75,0.00,,,0.01,Wunderground v.1.15,2013-02-20 15:19:00,
2013-02-20 10:23:00,25.3,18.5,29.69,WSW,250,1.0,8.0,75,0.00,,,0.01,Wunderground v.1.15,2013-02-20 15:23:00,
2013-02-20 10:24:00,25.4,18.6,29.69,West,281,2.0,8.0,75,0.00,,,0.01,Wunderground v.1.15,2013-02-20 15:24:00,
2013-02-20 10:28:00,25.4,18.9,29.69,NW,305,1.0,8.0,76,0.00,,,0.01,Wunderground v.1.15,2013-02-20 15:28:00,
2013-02-20 10:29:00,25.5,18.7,29.69,WSW,256,3.0,8.0,75,0.00,,,0.01,Wunderground v.1.15,2013-02-20 15:29:00,
2013-02-20 10:33:00,25.4,18.3,29.69,West,277,3.0,6.0,74,0.00,,,0.01,Wunderground v.1.15,2013-02-20 15:33:00,
2013-02-20 10:34:00,25.4,18.6,29.69,SW,235,2.0,6.0,75,0.00,,,0.01,Wunderground v.1.15,2013-02-20 15:34:00,
2013-02-20 10:38:00,25.4,17.9,29.69,North,5,2.0,8.0,73,0.00,,,0.01,Wunderground v.1.15,2013-02-20 15:38:00,
2013-02-20 10:39:00,25.4,17.9,29.69,West,280,1.0,8.0,73,0.00,,,0.01,Wunderground v.1.15,2013-02-20 15:39:00,
2013-02-20 10:43:00,25.5,18.0,29.70,WSW,249,6.0,8.0,73,0.00,,,0.01,Wunderground v.1.15,2013-02-20 15:43:00,
2013-02-20 10:44:00,25.5,17.7,29.70,SW,219,3.0,8.0,72,0.00,,,0.01,Wunderground v.1.15,2013-02-20 15:44:00,
2013-02-20 10:48:00,25.5,17.7,29.70,SW,229,4.0,11.0,72,0.00,,,0.01,Wunderground v.1.15,2013-02-20 15:48:00,
2013-02-20 10:49:00,25.5,17.7,29.70,SSW,212,2.0,11.0,72,0.00,,,0.01,Wunderground v.1.15,2013-02-20 15:49:00,
2013-02-20 10:53:00,25.6,17.8,29.70,West,259,0.0,6.0,72,0.00,,,0.01,Wunderground v.1.15,2013-02-20 15:53:00,
2013-02-20 10:54:00,25.7,17.9,29.70,WNW,302,0.0,6.0,72,0.00,,,0.01,Wunderground v.1.15,2013-02-20 15:54:00,
2013-02-20 10:58:00,25.9,17.8,29.70,West,278,0.0,6.0,71,0.00,,,0.01,Wunderground v.1.15,2013-02-20 15:58:00,
2013-02-20 10:59:00,25.9,17.8,29.70,West,278,1.0,6.0,71,0.00,,,0.01,Wunderground v.1.15,2013-02-20 15:59:00,
2013-02-20 11:03:00,25.9,17.5,29.70,SW,228,2.0,6.0,70,0.00,,,0.01,Wunderground v.1.15,2013-02-20 16:03:00,
2013-02-20 11:04:00,25.9,17.8,29.70,West,262,8.0,8.0,71,0.00,,,0.01,Wunderground v.1.15,2013-02-20 16:04:00,
2013-02-20 11:09:00,25.8,17.7,29.70,SW,231,5.0,9.0,71,0.00,,,0.01,Wunderground v.1.15,2013-02-20 16:09:00,
2013-02-20 11:14:00,25.8,18.0,29.70,WNW,285,4.0,6.0,72,0.00,,,0.01,Wunderground v.1.15,2013-02-20 16:14:00,
2013-02-20 11:19:00,25.9,17.5,29.70,West,260,5.0,9.0,70,0.00,,,0.01,Wunderground v.1.15,2013-02-20 16:19:00,
2013-02-20 11:20:00,25.9,17.5,29.70,SE,128,5.0,9.0,70,0.00,,,0.01,Wunderground v.1.15,2013-02-20 16:20:00,
2013-02-20 11:24:00,25.8,17.4,29.70,West,262,2.0,15.0,70,0.00,,,0.01,Wunderground v.1.15,2013-02-20 16:24:00,
2013-02-20 11:25:00,25.9,17.5,29.70,WSW,255,1.0,15.0,70,0.00,,,0.01,Wunderground v.1.15,2013-02-20 16:25:00,
2013-02-20 11:29:00,26.0,17.6,29.70,SW,233,4.0,15.0,70,0.00,,,0.01,Wunderground v.1.15,2013-02-20 16:29:00,
2013-02-20 11:30:00,26.0,17.2,29.70,ESE,116,3.0,3.0,69,0.00,,,0.01,Wunderground v.1.15,2013-02-20 16:30:00,
2013-02-20 11:34:00,26.1,17.6,29.70,WNW,283,4.0,5.0,70,0.00,,,0.01,Wunderground v.1.15,2013-02-20 16:34:00,
2013-02-20 11:35:00,26.1,17.3,29.70,West,260,5.0,6.0,69,0.00,,,0.01,Wunderground v.1.15,2013-02-20 16:35:00,
2013-02-20 11:39:00,26.2,17.4,29.70,SW,223,1.0,6.0,69,0.00,,,0.01,Wunderground v.1.15,2013-02-20 16:39:00,
2013-02-20 11:40:00,26.3,17.5,29.70,West,260,4.0,4.0,69,0.00,,,0.01,Wunderground v.1.15,2013-02-20 16:40:00,
2013-02-20 11:41:00,26.3,17.8,29.70,West,259,2.0,9.0,70,0.00,,,0.01,Wunderground v.1.15,2013-02-20 16:41:00,
2013-02-20 11:44:00,26.2,17.4,29.70,SSW,207,4.0,9.0,69,0.00,,,0.01,Wunderground v.1.15,2013-02-20 16:44:00,
2013-02-20 11:45:00,26.2,17.1,29.70,WNW,293,2.0,9.0,68,0.00,,,0.01,Wunderground v.1.15,2013-02-20 16:45:00,
2013-02-20 11:46:00,26.1,17.0,29.70,West,273,1.0,9.0,68,0.00,,,0.01,Wunderground v.1.15,2013-02-20 16:46:00,
2013-02-20 11:49:00,26.1,17.3,29.70,SW,235,3.0,9.0,69,0.00,,,0.01,Wunderground v.1.15,2013-02-20 16:49:00,
2013-02-20 11:50:00,26.1,17.3,29.70,SW,229,8.0,8.0,69,0.00,,,0.01,Wunderground v.1.15,2013-02-20 16:50:00,
2013-02-20 11:51:00,26.0,16.9,29.70,WSW,256,5.0,8.0,68,0.00,,,0.01,Wunderground v.1.15,2013-02-20 16:51:00,
2013-02-20 11:54:00,25.9,16.8,29.70,West,270,3.0,9.0,68,0.00,,,0.01,Wunderground v.1.15,2013-02-20 16:54:00,
2013-02-20 11:55:00,25.8,16.7,29.70,West,270,4.0,11.0,68,0.00,,,0.01,Wunderground v.1.15,2013-02-20 16:55:00,
2013-02-20 11:56:00,25.8,16.7,29.70,West,260,4.0,11.0,68,0.00,,,0.01,Wunderground v.1.15,2013-02-20 16:56:00,
2013-02-20 11:59:00,25.7,16.3,29.69,WSW,238,8.0,12.0,67,0.00,,,0.01,Wunderground v.1.15,2013-02-20 16:59:00,
2013-02-20 12:01:00,25.7,16.3,29.69,West,259,4.0,7.0,67,0.00,,,0.01,Wunderground v.1.15,2013-02-20 17:01:00,
2013-02-20 12:04:00,25.6,16.8,29.69,SW,228,4.0,7.0,69,0.00,,,0.01,Wunderground v.1.15,2013-02-20 17:04:00,
2013-02-20 12:06:00,25.6,16.5,29.69,West,260,4.0,10.0,68,0.00,,,0.01,Wunderground v.1.15,2013-02-20 17:06:00,
2013-02-20 12:07:00,25.6,16.5,29.69,NW,315,4.0,10.0,68,0.00,,,0.01,Wunderground v.1.15,2013-02-20 17:07:00,
2013-02-20 12:09:00,25.7,16.6,29.69,West,264,6.0,10.0,68,0.00,,,0.01,Wunderground v.1.15,2013-02-20 17:09:00,
2013-02-20 12:11:00,25.8,16.7,29.69,West,263,5.0,9.0,68,0.00,,,0.01,Wunderground v.1.15,2013-02-20 17:11:00,
2013-02-20 12:12:00,25.7,16.6,29.69,West,270,3.0,9.0,68,0.00,,,0.01,Wunderground v.1.15,2013-02-20 17:12:00,
2013-02-20 12:15:00,25.7,16.3,29.69,SW,235,3.0,13.0,67,0.00,,,0.01,Wunderground v.1.15,2013-02-20 17:15:00,
2013-02-20 12:17:00,25.9,16.4,29.69,WSW,252,2.0,13.0,67,0.00,,,0.01,Wunderground v.1.15,2013-02-20 17:17:00,
2013-02-20 12:20:00,26.4,17.3,29.69,WSW,253,1.0,4.0,68,0.00,,,0.01,Wunderground v.1.15,2013-02-20 17:20:00,
2013-02-20 12:22:00,26.9,17.7,29.69,WSW,240,5.0,6.0,68,0.00,,,0.01,Wunderground v.1.15,2013-02-20 17:22:00,
2013-02-20 12:25:00,26.9,16.7,29.69,West,271,5.0,8.0,65,0.00,,,0.01,Wunderground v.1.15,2013-02-20 17:25:00,
2013-02-20 12:27:00,26.8,16.6,29.69,SW,235,4.0,8.0,65,0.00,,,0.01,Wunderground v.1.15,2013-02-20 17:27:00,
2013-02-20 12:28:00,26.7,16.5,29.69,WNW,283,2.0,10.0,65,0.00,,,0.01,Wunderground v.1.15,2013-02-20 17:28:00,
2013-02-20 12:30:00,26.7,16.9,29.68,WSW,242,8.0,9.0,66,0.00,,,0.01,Wunderground v.1.15,2013-02-20 17:30:00,
2013-02-20 12:32:00,26.6,16.8,29.69,WSW,242,8.0,9.0,66,0.00,,,0.01,Wunderground v.1.15,2013-02-20 17:32:00,
2013-02-20 12:33:00,26.6,16.4,29.69,WSW,255,3.0,9.0,65,0.00,,,0.01,Wunderground v.1.15,2013-02-20 17:33:00,
2013-02-20 12:35:00,26.6,16.8,29.68,SW,219,1.0,9.0,66,0.00,,,0.01,Wunderground v.1.15,2013-02-20 17:35:00,
2013-02-20 12:37:00,26.6,16.4,29.68,WSW,255,6.0,9.0,65,0.00,,,0.01,Wunderground v.1.15,2013-02-20 17:37:00,
2013-02-20 12:38:00,26.5,16.0,29.68,West,262,6.0,11.0,64,0.00,,,0.01,Wunderground v.1.15,2013-02-20 17:38:00,
2013-02-20 12:41:00,26.4,16.2,29.68,WNW,284,1.0,7.0,65,0.00,,,0.01,Wunderground v.1.15,2013-02-20 17:41:00,
2013-02-20 12:42:00,26.4,16.6,29.68,WSW,254,5.0,7.0,66,0.00,,,0.01,Wunderground v.1.15,2013-02-20 17:42:00,
2013-02-20 12:43:00,26.5,16.7,29.68,WSW,257,2.0,7.0,66,0.00,,,0.01,Wunderground v.1.15,2013-02-20 17:43:00,
2013-02-20 12:46:00,26.6,16.4,29.68,NW,319,0.0,8.0,65,0.00,,,0.01,Wunderground v.1.15,2013-02-20 17:46:00,
2013-02-20 12:47:00,26.6,16.8,29.68,West,271,3.0,8.0,66,0.00,,,0.01,Wunderground v.1.15,2013-02-20 17:47:00,
2013-02-20 12:48:00,26.6,16.4,29.68,WSW,238,3.0,8.0,65,0.00,,,0.01,Wunderground v.1.15,2013-02-20 17:48:00,
2013-02-20 12:52:00,26.5,15.6,29.68,WSW,252,1.0,9.0,63,0.00,,,0.01,Wunderground v.1.15,2013-02-20 17:52:00,
2013-02-20 12:53:00,26.4,16.2,29.68,WNW,285,3.0,9.0,65,0.00,,,0.01,Wunderground v.1.15,2013-02-20 17:53:00,
2013-02-20 12:57:00,26.4,16.2,29.68,SW,228,4.0,9.0,65,0.00,,,0.01,Wunderground v.1.15,2013-02-20 17:57:00,
2013-02-20 12:59:00,26.4,16.2,29.69,West,259,5.0,9.0,65,0.00,,,0.01,Wunderground v.1.15,2013-02-20 17:59:00,
2013-02-20 13:02:00,26.3,15.8,29.68,WSW,257,4.0,9.0,64,0.00,,,0.01,Wunderground v.1.15,2013-02-20 18:02:00,
2013-02-20 13:03:00,26.3,15.8,29.68,SW,231,3.0,9.0,64,0.00,,,0.01,Wunderground v.1.15,2013-02-20 18:03:00,
2013-02-20 13:04:00,26.2,15.7,29.69,West,276,2.0,9.0,64,0.00,,,0.01,Wunderground v.1.15,2013-02-20 18:04:00,
2013-02-20 13:07:00,26.2,15.7,29.69,SW,229,7.0,9.0,64,0.00,,,0.01,Wunderground v.1.15,2013-02-20 18:07:00,
2013-02-20 13:08:00,26.2,15.7,29.69,SW,229,7.0,9.0,64,0.00,,,0.01,Wunderground v.1.15,2013-02-20 18:08:00,
2013-02-20 13:09:00,26.1,15.2,29.68,WSW,252,2.0,10.0,63,0.00,,,0.01,Wunderground v.1.15,2013-02-20 18:09:00,
2013-02-20 13:12:00,26.1,16.3,29.68,West,270,5.0,7.0,66,0.00,,,0.01,Wunderground v.1.15,2013-02-20 18:12:00,
2013-02-20 13:13:00,26.1,16.3,29.68,WSW,246,6.0,7.0,66,0.00,,,0.01,Wunderground v.1.15,2013-02-20 18:13:00,
2013-02-20 13:14:00,26.1,16.3,29.68,WNW,290,1.0,7.0,66,0.00,,,0.01,Wunderground v.1.15,2013-02-20 18:14:00,
2013-02-20 13:17:00,26.2,16.0,29.68,WSW,257,2.0,7.0,65,0.00,,,0.01,Wunderground v.1.15,2013-02-20 18:17:00,
2013-02-20 13:18:00,26.2,16.0,29.68,WSW,239,5.0,7.0,65,0.00,,,0.01,Wunderground v.1.15,2013-02-20 18:18:00,
2013-02-20 13:19:00,26.1,15.6,29.68,West,281,6.0,9.0,64,0.00,,,0.01,Wunderground v.1.15,2013-02-20 18:19:00,
2013-02-20 13:22:00,26.1,15.9,29.68,SSW,212,4.0,7.0,65,0.00,,,0.01,Wunderground v.1.15,2013-02-20 18:22:00,
2013-02-20 13:23:00,26.1,15.9,29.68,SW,224,4.0,7.0,65,0.00,,,0.01,Wunderground v.1.15,2013-02-20 18:23:00,
2013-02-20 13:24:00,26.2,15.7,29.68,WNW,295,2.0,8.0,64,0.00,,,0.01,Wunderground v.1.15,2013-02-20 18:24:00,
2013-02-20 13:28:00,26.2,16.0,29.68,WSW,249,5.0,9.0,65,0.00,,,0.01,Wunderground v.1.15,2013-02-20 18:28:00,
2013-02-20 13:29:00,26.0,15.8,29.68,West,267,3.0,9.0,65,0.00,,,0.01,Wunderground v.1.15,2013-02-20 18:29:00,
2013-02-20 13:33:00,25.8,15.3,29.68,WSW,256,1.0,7.0,64,0.00,,,0.01,Wunderground v.1.15,2013-02-20 18:33:00,
2013-02-20 13:34:00,25.8,16.0,29.68,WSW,252,4.0,7.0,66,0.00,,,0.01,Wunderground v.1.15,2013-02-20 18:34:00,
2013-02-20 13:38:00,25.7,15.9,29.68,SSW,212,5.0,7.0,66,0.00,,,0.01,Wunderground v.1.15,2013-02-20 18:38:00,
2013-02-20 13:39:00,25.7,15.6,29.68,SE,130,3.0,7.0,65,0.00,,,0.01,Wunderground v.1.15,2013-02-20 18:39:00,
2013-02-20 13:43:00,25.4,15.6,29.68,West,269,1.0,8.0,66,0.00,,,0.01,Wunderground v.1.15,2013-02-20 18:43:00,
2013-02-20 13:44:00,25.4,15.6,29.68,West,274,7.0,9.0,66,0.00,,,0.01,Wunderground v.1.15,2013-02-20 18:44:00,
2013-02-20 13:45:00,25.4,15.6,29.68,WSW,256,8.0,10.0,66,0.00,,,0.01,Wunderground v.1.15,2013-02-20 18:45:00,
2013-02-20 13:48:00,25.3,15.5,29.68,SW,235,5.0,10.0,66,0.00,,,0.01,Wunderground v.1.15,2013-02-20 18:48:00,
2013-02-20 13:49:00,25.3,15.5,29.68,NW,305,4.0,10.0,66,0.00,,,0.01,Wunderground v.1.15,2013-02-20 18:49:00,
2013-02-20 13:50:00,25.3,15.5,29.68,WSW,255,4.0,4.0,66,0.00,,,0.01,Wunderground v.1.15,2013-02-20 18:50:00,
2013-02-20 13:53:00,25.3,15.2,29.68,SW,228,3.0,7.0,65,0.00,,,0.01,Wunderground v.1.15,2013-02-20 18:53:00,
2013-02-20 13:54:00,25.3,15.2,29.68,West,264,1.0,7.0,65,0.00,,,0.01,Wunderground v.1.15,2013-02-20 18:54:00,
2013-02-20 13:55:00,25.3,15.2,29.68,WSW,242,1.0,7.0,65,0.00,,,0.01,Wunderground v.1.15,2013-02-20 18:55:00,
2013-02-20 13:58:00,25.4,15.3,29.68,West,262,6.0,10.0,65,0.00,,,0.01,Wunderground v.1.15,2013-02-20 18:58:00,
2013-02-20 13:59:00,25.4,14.9,29.68,West,262,8.0,10.0,64,0.00,,,0.01,Wunderground v.1.15,2013-02-20 18:59:00,
2013-02-20 14:01:00,25.3,14.5,29.68,West,265,5.0,10.0,63,0.00,,,0.01,Wunderground v.1.15,2013-02-20 19:01:00,
2013-02-20 14:04:00,25.4,14.5,29.68,West,259,5.0,10.0,63,0.00,,,0.01,Wunderground v.1.15,2013-02-20 19:04:00,
2013-02-20 14:07:00,25.5,14.6,29.68,SW,228,2.0,10.0,63,0.00,,,0.01,Wunderground v.1.15,2013-02-20 19:07:00,
2013-02-20 14:09:00,25.7,14.5,29.68,West,259,7.0,10.0,62,0.00,,,0.01,Wunderground v.1.15,2013-02-20 19:09:00,
2013-02-20 14:12:00,25.7,14.5,29.68,West,264,3.0,13.0,62,0.00,,,0.01,Wunderground v.1.15,2013-02-20 19:12:00,
2013-02-20 14:14:00,25.7,14.8,29.68,WNW,292,5.0,13.0,63,0.00,,,0.01,Wunderground v.1.15,2013-02-20 19:14:00,
2013-02-20 14:17:00,25.7,14.5,29.68,WSW,252,6.0,13.0,62,0.00,,,0.01,Wunderground v.1.15,2013-02-20 19:17:00,
2013-02-20 14:19:00,25.5,14.3,29.68,West,259,10.0,13.0,62,0.00,,,0.01,Wunderground v.1.15,2013-02-20 19:19:00,
2013-02-20 14:22:00,25.4,14.9,29.69,SW,233,4.0,6.0,64,0.00,,,0.01,Wunderground v.1.15,2013-02-20 19:22:00,
2013-02-20 14:24:00,25.4,14.9,29.69,WSW,249,3.0,9.0,64,0.00,,,0.01,Wunderground v.1.15,2013-02-20 19:24:00,
2013-02-20 14:25:00,25.4,14.9,29.69,SW,235,4.0,9.0,64,0.00,,,0.01,Wunderground v.1.15,2013-02-20 19:25:00,
2013-02-20 14:27:00,25.4,15.3,29.69,West,262,1.0,9.0,65,0.00,,,0.01,Wunderground v.1.15,2013-02-20 19:27:00,
2013-02-20 14:29:00,25.5,15.4,29.69,WSW,255,3.0,9.0,65,0.00,,,0.01,Wunderground v.1.15,2013-02-20 19:29:00,
2013-02-20 14:30:00,25.5,15.0,29.69,West,275,2.0,3.0,64,0.00,,,0.01,Wunderground v.1.15,2013-02-20 19:30:00,
2013-02-20 14:32:00,25.5,14.6,29.69,West,264,10.0,22.0,63,0.00,,,0.01,Wunderground v.1.15,2013-02-20 19:32:00,
2013-02-20 14:34:00,25.4,14.5,29.69,WNW,300,3.0,22.0,63,0.00,,,0.01,Wunderground v.1.15,2013-02-20 19:34:00,
2013-02-20 14:35:00,25.4,14.5,29.69,SW,231,4.0,22.0,63,0.00,,,0.01,Wunderground v.1.15,2013-02-20 19:35:00,
2013-02-20 14:37:00,25.3,14.5,29.69,WSW,253,5.0,22.0,63,0.00,,,0.01,Wunderground v.1.15,2013-02-20 19:37:00,
2013-02-20 14:39:00,25.3,14.8,29.69,WSW,238,4.0,22.0,64,0.00,,,0.01,Wunderground v.1.15,2013-02-20 19:39:00,
2013-02-20 14:40:00,25.2,14.4,29.69,West,281,2.0,5.0,63,0.00,,,0.01,Wunderground v.1.15,2013-02-20 19:40:00,
2013-02-20 14:42:00,25.3,14.8,29.69,WSW,252,5.0,5.0,64,0.00,,,0.01,Wunderground v.1.15,2013-02-20 19:42:00,
2013-02-20 14:44:00,25.4,14.5,29.69,West,271,4.0,9.0,63,0.00,,,0.01,Wunderground v.1.15,2013-02-20 19:44:00,
2013-02-20 14:46:00,25.5,14.3,29.69,SW,225,5.0,14.0,62,0.00,,,0.01,Wunderground v.1.15,2013-02-20 19:46:00,
2013-02-20 14:47:00,25.4,14.2,29.69,West,264,5.0,14.0,62,0.00,,,0.01,Wunderground v.1.15,2013-02-20 19:47:00,
2013-02-20 14:49:00,25.4,14.5,29.69,West,273,4.0,14.0,63,0.00,,,0.01,Wunderground v.1.15,2013-02-20 19:49:00,
2013-02-20 14:51:00,25.4,14.2,29.69,West,280,2.0,7.0,62,0.00,,,0.01,Wunderground v.1.15,2013-02-20 19:51:00,
2013-02-20 14:52:00,25.5,14.6,29.69,WSW,255,5.0,11.0,63,0.00,,,0.01,Wunderground v.1.15,2013-02-20 19:52:00,
2013-02-20 14:54:00,25.7,15.2,29.69,WNW,302,2.0,11.0,64,0.00,,,0.01,Wunderground v.1.15,2013-02-20 19:54:00,
2013-02-20 14:56:00,25.8,14.9,29.69,West,273,3.0,11.0,63,0.00,,,0.01,Wunderground v.1.15,2013-02-20 19:56:00,
2013-02-20 14:58:00,26.0,15.1,29.69,West,278,5.0,11.0,63,0.00,,,0.01,Wunderground v.1.15,2013-02-20 19:58:00,
2013-02-20 14:59:00,26.0,15.1,29.69,SSW,197,3.0,11.0,63,0.00,,,0.01,Wunderground v.1.15,2013-02-20 19:59:00,
2013-02-20 15:00:00,26.0,14.8,29.69,SW,232,3.0,11.0,62,0.00,,,0.01,Wunderground v.1.15,2013-02-20 20:00:00,
2013-02-20 15:01:00,26.0,14.8,29.69,West,277,5.0,5.0,62,0.00,,,0.01,Wunderground v.1.15,2013-02-20 20:01:00,
2013-02-20 15:03:00,25.9,14.7,29.69,West,276,2.0,8.0,62,0.00,,,0.01,Wunderground v.1.15,2013-02-20 20:03:00,
2013-02-20 15:04:00,25.8,14.6,29.69,West,273,4.0,9.0,62,0.00,,,0.01,Wunderground v.1.15,2013-02-20 20:04:00,
2013-02-20 15:05:00,25.9,14.7,29.69,West,260,3.0,9.0,62,0.00,,,0.01,Wunderground v.1.15,2013-02-20 20:05:00,
2013-02-20 15:07:00,25.9,14.7,29.69,SE,135,2.0,9.0,62,0.00,,,0.01,Wunderground v.1.15,2013-02-20 20:07:00,
2013-02-20 15:08:00,25.9,14.7,29.69,WSW,246,4.0,9.0,62,0.00,,,0.01,Wunderground v.1.15,2013-02-20 20:08:00,
2013-02-20 15:09:00,25.9,14.7,29.69,West,277,3.0,9.0,62,0.00,,,0.01,Wunderground v.1.15,2013-02-20 20:09:00,
2013-02-20 15:10:00,25.9,14.7,29.69,WSW,249,3.0,5.0,62,0.00,,,0.01,Wunderground v.1.15,2013-02-20 20:10:00,
2013-02-20 15:12:00,25.9,14.7,29.69,West,273,4.0,6.0,62,0.00,,,0.01,Wunderground v.1.15,2013-02-20 20:12:00,
2013-02-20 15:13:00,26.1,14.8,29.69,SE,127,1.0,6.0,62,0.00,,,0.01,Wunderground v.1.15,2013-02-20 20:13:00,
2013-02-20 15:15:00,26.2,14.9,29.70,South,177,2.0,6.0,62,0.00,,,0.01,Wunderground v.1.15,2013-02-20 20:15:00,
2013-02-20 15:17:00,26.6,15.7,29.69,NNW,340,2.0,6.0,63,0.00,,,0.01,Wunderground v.1.15,2013-02-20 20:17:00,
2013-02-20 15:18:00,26.6,14.9,29.69,SSE,150,4.0,8.0,61,0.00,,,0.01,Wunderground v.1.15,2013-02-20 20:18:00,
2013-02-20 15:20:00,26.6,14.6,29.69,West,274,3.0,4.0,60,0.00,,,0.01,Wunderground v.1.15,2013-02-20 20:20:00,
2013-02-20 15:22:00,26.3,14.7,29.70,East,84,5.0,9.0,61,0.00,,,0.01,Wunderground v.1.15,2013-02-20 20:22:00,
2013-02-20 15:23:00,26.3,15.0,29.70,NW,315,2.0,9.0,62,0.00,,,0.01,Wunderground v.1.15,2013-02-20 20:23:00,
2013-02-20 15:25:00,26.2,14.6,29.70,SSW,197,3.0,9.0,61,0.00,,,0.01,Wunderground v.1.15,2013-02-20 20:25:00,
2013-02-20 15:27:00,26.2,14.9,29.70,NW,305,1.0,9.0,62,0.00,,,0.01,Wunderground v.1.15,2013-02-20 20:27:00,
2013-02-20 15:28:00,26.2,15.3,29.71,SE,128,1.0,9.0,63,0.00,,,0.01,Wunderground v.1.15,2013-02-20 20:28:00,
2013-02-20 15:30:00,26.2,15.3,29.71,WSW,257,4.0,4.0,63,0.00,,,0.01,Wunderground v.1.15,2013-02-20 20:30:00,
2013-02-20 15:32:00,26.3,15.4,29.71,South,191,2.0,4.0,63,0.00,,,0.01,Wunderground v.1.15,2013-02-20 20:32:00,
2013-02-20 15:33:00,26.3,15.4,29.70,NNE,29,1.0,4.0,63,0.00,,,0.01,Wunderground v.1.15,2013-02-20 20:33:00,
2013-02-20 15:35:00,26.3,14.7,29.71,West,266,4.0,7.0,61,0.00,,,0.01,Wunderground v.1.15,2013-02-20 20:35:00,
2013-02-20 15:36:00,26.3,14.7,29.71,West,277,4.0,7.0,61,0.00,,,0.01,Wunderground v.1.15,2013-02-20 20:36:00,
2013-02-20 15:37:00,26.3,15.0,29.71,WSW,238,6.0,7.0,62,0.00,,,0.01,Wunderground v.1.15,2013-02-20 20:37:00,
2013-02-20 15:39:00,26.1,14.5,29.71,SW,218,5.0,7.0,61,0.00,,,0.01,Wunderground v.1.15,2013-02-20 20:39:00,
2013-02-20 15:41:00,26.0,14.4,29.71,SW,224,6.0,7.0,61,0.00,,,0.01,Wunderground v.1.15,2013-02-20 20:41:00,
2013-02-20 15:42:00,25.9,14.3,29.71,WSW,252,0.0,7.0,61,0.00,,,0.01,Wunderground v.1.15,2013-02-20 20:42:00,
2013-02-20 15:44:00,25.8,14.6,29.71,West,269,2.0,7.0,62,0.00,,,0.01,Wunderground v.1.15,2013-02-20 20:44:00,
2013-02-20 15:46:00,25.8,14.6,29.71,SW,216,5.0,12.0,62,0.00,,,0.01,Wunderground v.1.15,2013-02-20 20:46:00,
2013-02-20 15:47:00,25.6,14.0,29.71,WSW,250,2.0,15.0,61,0.00,,,0.01,Wunderground v.1.15,2013-02-20 20:47:00,
2013-02-20 15:49:00,25.4,14.9,29.71,West,277,2.0,15.0,64,0.00,,,0.01,Wunderground v.1.15,2013-02-20 20:49:00,
2013-02-20 15:51:00,25.4,14.9,29.71,WSW,250,2.0,4.0,64,0.00,,,0.01,Wunderground v.1.15,2013-02-20 20:51:00,
2013-02-20 15:52:00,25.5,15.7,29.71,West,259,0.0,4.0,66,0.00,,,0.01,Wunderground v.1.15,2013-02-20 20:52:00,
2013-02-20 15:54:00,25.7,15.2,29.71,West,262,5.0,6.0,64,0.00,,,0.01,Wunderground v.1.15,2013-02-20 20:54:00,
2013-02-20 15:56:00,25.7,15.2,29.71,WSW,255,5.0,7.0,64,0.00,,,0.01,Wunderground v.1.15,2013-02-20 20:56:00,
2013-02-20 15:58:00,25.7,15.2,29.71,NW,311,2.0,7.0,64,0.00,,,0.01,Wunderground v.1.15,2013-02-20 20:58:00,
2013-02-20 15:59:00,25.7,15.2,29.71,West,281,4.0,7.0,64,0.00,,,0.01,Wunderground v.1.15,2013-02-20 20:59:00,
2013-02-20 16:01:00,25.7,15.2,29.70,West,281,5.0,7.0,64,0.00,,,0.01,Wunderground v.1.15,2013-02-20 21:01:00,
2013-02-20 16:02:00,25.7,15.2,29.70,West,275,6.0,9.0,64,0.00,,,0.01,Wunderground v.1.15,2013-02-20 21:02:00,
2013-02-20 16:03:00,25.6,14.7,29.71,South,187,8.0,9.0,63,0.00,,,0.01,Wunderground v.1.15,2013-02-20 21:03:00,
2013-02-20 16:04:00,25.4,14.5,29.71,West,274,2.0,10.0,63,0.00,,,0.01,Wunderground v.1.15,2013-02-20 21:04:00,
2013-02-20 16:07:00,25.3,14.8,29.71,WNW,295,2.0,10.0,64,0.00,,,0.01,Wunderground v.1.15,2013-02-20 21:07:00,
2013-02-20 16:08:00,25.2,15.1,29.71,West,266,3.0,10.0,65,0.00,,,0.01,Wunderground v.1.15,2013-02-20 21:08:00,
2013-02-20 16:09:00,25.1,15.0,29.71,West,262,6.0,10.0,65,0.00,,,0.01,Wunderground v.1.15,2013-02-20 21:09:00,
2013-02-20 16:12:00,24.9,14.4,29.71,West,270,5.0,15.0,64,0.00,,,0.01,Wunderground v.1.15,2013-02-20 21:12:00,
2013-02-20 16:13:00,24.8,14.7,29.71,WSW,238,6.0,15.0,65,0.00,,,0.01,Wunderground v.1.15,2013-02-20 21:13:00,
2013-02-20 16:14:00,24.7,14.6,29.71,SW,224,4.0,15.0,65,0.00,,,0.01,Wunderground v.1.15,2013-02-20 21:14:00,
2013-02-20 16:17:00,24.6,14.9,29.71,West,266,3.0,15.0,66,0.00,,,0.01,Wunderground v.1.15,2013-02-20 21:17:00,
2013-02-20 16:18:00,24.5,14.8,29.71,WSW,246,4.0,15.0,66,0.00,,,0.01,Wunderground v.1.15,2013-02-20 21:18:00,
2013-02-20 16:20:00,24.4,14.7,29.71,West,264,3.0,6.0,66,0.00,,,0.01,Wunderground v.1.15,2013-02-20 21:20:00,
2013-02-20 16:22:00,24.2,14.8,29.71,West,270,1.0,7.0,67,0.00,,,0.01,Wunderground v.1.15,2013-02-20 21:22:00,
2013-02-20 16:24:00,24.1,14.7,29.71,East,84,2.0,11.0,67,0.00,,,0.01,Wunderground v.1.15,2013-02-20 21:24:00,
2013-02-20 16:25:00,24.0,15.0,29.71,WSW,255,5.0,11.0,68,0.00,,,0.01,Wunderground v.1.15,2013-02-20 21:25:00,
2013-02-20 16:27:00,23.9,14.9,29.71,WSW,257,11.0,11.0,68,0.00,,,0.01,Wunderground v.1.15,2013-02-20 21:27:00,
2013-02-20 16:29:00,23.8,14.8,29.71,WSW,253,1.0,11.0,68,0.00,,,0.01,Wunderground v.1.15,2013-02-20 21:29:00,
2013-02-20 16:31:00,23.8,15.1,29.71,WSW,246,7.0,8.0,69,0.00,,,0.01,Wunderground v.1.15,2013-02-20 21:31:00,
2013-02-20 16:32:00,23.7,15.0,29.71,West,262,4.0,8.0,69,0.00,,,0.01,Wunderground v.1.15,2013-02-20 21:32:00,
2013-02-20 16:34:00,23.6,14.9,29.71,SW,214,5.0,9.0,69,0.00,,,0.01,Wunderground v.1.15,2013-02-20 21:34:00,
2013-02-20 16:36:00,23.6,14.9,29.71,WNW,284,2.0,9.0,69,0.00,,,0.01,Wunderground v.1.15,2013-02-20 21:36:00,
2013-02-20 16:37:00,23.5,15.1,29.72,South,187,1.0,9.0,70,0.00,,,0.01,Wunderground v.1.15,2013-02-20 21:37:00,
2013-02-20 16:39:00,23.5,15.1,29.72,WSW,254,7.0,10.0,70,0.00,,,0.01,Wunderground v.1.15,2013-02-20 21:39:00,
2013-02-20 16:41:00,23.5,15.1,29.71,WNW,297,3.0,5.0,70,0.00,,,0.01,Wunderground v.1.15,2013-02-20 21:41:00,
2013-02-20 16:42:00,23.4,15.1,29.71,WSW,249,4.0,9.0,70,0.00,,,0.01,Wunderground v.1.15,2013-02-20 21:42:00,
2013-02-20 16:44:00,23.4,15.1,29.71,WNW,295,2.0,9.0,70,0.00,,,0.01,Wunderground v.1.15,2013-02-20 21:44:00,
2013-02-20 16:46:00,23.4,15.1,29.71,NNW,338,1.0,9.0,70,0.00,,,0.01,Wunderground v.1.15,2013-02-20 21:46:00,
2013-02-20 16:47:00,23.3,15.0,29.72,SW,214,4.0,12.0,70,0.00,,,0.01,Wunderground v.1.15,2013-02-20 21:47:00,
2013-02-20 16:48:00,23.3,15.0,29.72,West,262,7.0,12.0,70,0.00,,,0.01,Wunderground v.1.15,2013-02-20 21:48:00,
2013-02-20 16:49:00,23.3,14.6,29.72,WSW,257,4.0,12.0,69,0.00,,,0.01,Wunderground v.1.15,2013-02-20 21:49:00,
2013-02-20 16:51:00,23.2,14.9,29.72,West,274,6.0,10.0,70,0.00,,,0.01,Wunderground v.1.15,2013-02-20 21:51:00,
2013-02-20 16:52:00,23.2,14.9,29.71,WSW,252,5.0,10.0,70,0.00,,,0.01,Wunderground v.1.15,2013-02-20 21:52:00,
2013-02-20 16:53:00,23.2,14.9,29.71,West,267,3.0,10.0,70,0.00,,,0.01,Wunderground v.1.15,2013-02-20 21:53:00,
2013-02-20 16:54:00,23.2,14.5,29.71,West,264,5.0,13.0,69,0.00,,,0.01,Wunderground v.1.15,2013-02-20 21:54:00,
2013-02-20 16:56:00,23.1,14.4,29.72,West,273,6.0,13.0,69,0.00,,,0.01,Wunderground v.1.15,2013-02-20 21:56:00,
2013-02-20 16:58:00,23.1,14.8,29.72,ESE,105,2.0,13.0,70,0.00,,,0.01,Wunderground v.1.15,2013-02-20 21:58:00,
2013-02-20 16:59:00,23.1,14.4,29.72,West,260,3.0,13.0,69,0.00,,,0.01,Wunderground v.1.15,2013-02-20 21:59:00,
2013-02-20 17:01:00,23.0,14.3,29.71,WSW,252,10.0,10.0,69,0.00,,,0.01,Wunderground v.1.15,2013-02-20 22:01:00,
2013-02-20 17:03:00,23.0,14.3,29.72,WSW,252,3.0,10.0,69,0.00,,,0.01,Wunderground v.1.15,2013-02-20 22:03:00,
2013-02-20 17:04:00,23.0,14.3,29.72,SW,233,4.0,10.0,69,0.00,,,0.01,Wunderground v.1.15,2013-02-20 22:04:00,
2013-02-20 17:06:00,22.9,14.6,29.72,West,274,5.0,10.0,70,0.00,,,0.01,Wunderground v.1.15,2013-02-20 22:06:00,
2013-02-20 17:08:00,22.9,14.2,29.72,West,259,3.0,10.0,69,0.00,,,0.01,Wunderground v.1.15,2013-02-20 22:08:00,
2013-02-20 17:09:00,22.9,14.6,29.72,West,276,2.0,10.0,70,0.00,,,0.01,Wunderground v.1.15,2013-02-20 22:09:00,
2013-02-20 17:10:00,22.9,14.2,29.72,SSW,208,2.0,4.0,69,0.00,,,0.01,Wunderground v.1.15,2013-02-20 22:10:00,
2013-02-20 17:11:00,22.9,14.6,29.72,WSW,252,5.0,5.0,70,0.00,,,0.01,Wunderground v.1.15,2013-02-20 22:11:00,
2013-02-20 17:13:00,22.9,14.6,29.72,WSW,238,1.0,8.0,70,0.00,,,0.01,Wunderground v.1.15,2013-02-20 22:13:00,
2013-02-20 17:14:00,22.9,14.6,29.73,West,265,5.0,10.0,70,0.00,,,0.01,Wunderground v.1.15,2013-02-20 22:14:00,
2013-02-20 17:15:00,22.9,14.6,29.72,West,281,4.0,10.0,70,0.00,,,0.01,Wunderground v.1.15,2013-02-20 22:15:00,
2013-02-20 17:16:00,22.8,14.5,29.72,North,356,2.0,12.0,70,0.00,,,0.01,Wunderground v.1.15,2013-02-20 22:16:00,
2013-02-20 17:18:00,22.8,14.5,29.72,WSW,255,3.0,12.0,70,0.00,,,0.01,Wunderground v.1.15,2013-02-20 22:18:00,
2013-02-20 17:19:00,22.8,14.5,29.73,SE,135,1.0,12.0,70,0.00,,,0.01,Wunderground v.1.15,2013-02-20 22:19:00,
2013-02-20 17:20:00,22.8,14.8,29.73,West,281,1.0,4.0,71,0.00,,,0.01,Wunderground v.1.15,2013-02-20 22:20:00,
2013-02-20 17:22:00,22.7,14.7,29.72,SW,235,7.0,9.0,71,0.00,,,0.01,Wunderground v.1.15,2013-02-20 22:22:00,
2013-02-20 17:23:00,22.7,14.4,29.72,WSW,257,5.0,16.0,70,0.00,,,0.01,Wunderground v.1.15,2013-02-20 22:23:00,
2013-02-20 17:24:00,22.7,14.4,29.73,SW,236,4.0,16.0,70,0.00,,,0.01,Wunderground v.1.15,2013-02-20 22:24:00,
2013-02-20 17:25:00,22.7,14.4,29.72,SW,233,2.0,16.0,70,0.00,,,0.01,Wunderground v.1.15,2013-02-20 22:25:00,
2013-02-20 17:27:00,22.6,14.6,29.73,SW,214,3.0,16.0,71,0.00,,,0.01,Wunderground v.1.15,2013-02-20 22:27:00,
2013-02-20 17:28:00,22.6,14.6,29.73,West,266,2.0,16.0,71,0.00,,,0.01,Wunderground v.1.15,2013-02-20 22:28:00,
2013-02-20 17:29:00,22.5,14.5,29.73,SSW,201,4.0,16.0,71,0.00,,,0.01,Wunderground v.1.15,2013-02-20 22:29:00,
2013-02-20 17:30:00,22.5,14.5,29.73,SW,222,5.0,6.0,71,0.00,,,0.01,Wunderground v.1.15,2013-02-20 22:30:00,
2013-02-20 17:32:00,22.5,14.5,29.73,West,281,3.0,6.0,71,0.00,,,0.01,Wunderground v.1.15,2013-02-20 22:32:00,
2013-02-20 17:33:00,22.4,14.4,29.73,WSW,257,2.0,6.0,71,0.00,,,0.01,Wunderground v.1.15,2013-02-20 22:33:00,
2013-02-20 17:34:00,22.4,14.4,29.73,WNW,288,4.0,6.0,71,0.00,,,0.01,Wunderground v.1.15,2013-02-20 22:34:00,
2013-02-20 17:35:00,22.4,14.4,29.73,West,273,4.0,7.0,71,0.00,,,0.01,Wunderground v.1.15,2013-02-20 22:35:00,
2013-02-20 17:37:00,22.3,14.6,29.73,SW,229,5.0,10.0,72,0.00,,,0.01,Wunderground v.1.15,2013-02-20 22:37:00,
2013-02-20 17:38:00,22.3,14.6,29.73,West,280,2.0,10.0,72,0.00,,,0.01,Wunderground v.1.15,2013-02-20 22:38:00,
2013-02-20 17:39:00,22.3,15.0,29.73,West,277,1.0,10.0,73,0.00,,,0.01,Wunderground v.1.15,2013-02-20 22:39:00,
2013-02-20 17:40:00,22.3,15.0,29.73,West,280,4.0,4.0,73,0.00,,,0.01,Wunderground v.1.15,2013-02-20 22:40:00,
2013-02-20 17:43:00,22.2,14.5,29.73,WSW,257,8.0,10.0,72,0.00,,,0.01,Wunderground v.1.15,2013-02-20 22:43:00,
2013-02-20 17:44:00,22.2,14.5,29.73,West,271,3.0,10.0,72,0.00,,,0.01,Wunderground v.1.15,2013-02-20 22:44:00,
2013-02-20 17:45:00,22.1,14.8,29.73,WSW,240,2.0,10.0,73,0.00,,,0.01,Wunderground v.1.15,2013-02-20 22:45:00,
2013-02-20 17:48:00,22.1,14.8,29.73,WSW,252,6.0,10.0,73,0.00,,,0.01,Wunderground v.1.15,2013-02-20 22:48:00,
2013-02-20 17:49:00,22.1,14.8,29.73,WSW,249,2.0,10.0,73,0.00,,,0.01,Wunderground v.1.15,2013-02-20 22:49:00,
2013-02-20 17:50:00,22.1,15.1,29.73,WSW,250,1.0,4.0,74,0.00,,,0.01,Wunderground v.1.15,2013-02-20 22:50:00,
2013-02-20 17:53:00,22.0,15.0,29.73,WNW,288,3.0,10.0,74,0.00,,,0.01,Wunderground v.1.15,2013-02-20 22:53:00,
2013-02-20 17:54:00,22.0,15.0,29.73,WSW,240,2.0,10.0,74,0.00,,,0.01,Wunderground v.1.15,2013-02-20 22:54:00,
2013-02-20 17:55:00,22.0,15.0,29.73,WSW,257,2.0,10.0,74,0.00,,,0.01,Wunderground v.1.15,2013-02-20 22:55:00,
2013-02-20 17:58:00,21.9,14.9,29.73,West,271,3.0,10.0,74,0.00,,,0.01,Wunderground v.1.15,2013-02-20 22:58:00,
2013-02-20 17:59:00,21.9,14.9,29.74,WSW,258,2.0,10.0,74,0.00,,,0.01,Wunderground v.1.15,2013-02-20 22:59:00,
2013-02-20 18:01:00,21.9,14.9,29.74,NW,315,4.0,4.0,74,0.00,,,0.01,Wunderground v.1.15,2013-02-20 23:01:00,
2013-02-20 18:02:00,21.9,14.9,29.74,NW,312,2.0,4.0,74,0.00,,,0.01,Wunderground v.1.15,2013-02-20 23:02:00,
2013-02-20 18:03:00,21.8,15.1,29.74,SSW,205,2.0,5.0,75,0.00,,,0.01,Wunderground v.1.15,2013-02-20 23:03:00,
2013-02-20 18:04:00,21.9,15.2,29.74,NNE,28,2.0,7.0,75,0.00,,,0.01,Wunderground v.1.15,2013-02-20 23:04:00,
2013-02-20 18:07:00,21.8,15.1,29.74,West,280,0.0,7.0,75,0.00,,,0.01,Wunderground v.1.15,2013-02-20 23:07:00,
2013-02-20 18:09:00,21.8,15.1,29.74,SW,235,7.0,8.0,75,0.00,,,0.01,Wunderground v.1.15,2013-02-20 23:09:00,
2013-02-20 18:12:00,21.7,15.3,29.74,South,187,2.0,7.0,76,0.00,,,0.01,Wunderground v.1.15,2013-02-20 23:12:00,
2013-02-20 18:14:00,21.7,15.3,29.75,SSW,210,6.0,7.0,76,0.00,,,0.01,Wunderground v.1.15,2013-02-20 23:14:00,
2013-02-20 18:15:00,21.7,15.3,29.75,SSW,203,7.0,8.0,76,0.00,,,0.01,Wunderground v.1.15,2013-02-20 23:15:00,
2013-02-20 18:17:00,21.6,15.5,29.75,NW,320,0.0,9.0,77,0.00,,,0.01,Wunderground v.1.15,2013-02-20 23:17:00,
2013-02-20 18:19:00,21.6,15.5,29.75,SW,236,0.0,9.0,77,0.00,,,0.01,Wunderground v.1.15,2013-02-20 23:19:00,
2013-02-20 18:20:00,21.6,15.5,29.75,WSW,243,2.0,3.0,77,0.00,,,0.01,Wunderground v.1.15,2013-02-20 23:20:00,
2013-02-20 18:22:00,21.6,15.8,29.75,ESE,113,1.0,3.0,78,0.00,,,0.01,Wunderground v.1.15,2013-02-20 23:22:00,
2013-02-20 18:24:00,21.6,15.8,29.75,SSW,210,1.0,3.0,78,0.00,,,0.01,Wunderground v.1.15,2013-02-20 23:24:00,
2013-02-20 18:25:00,21.6,15.8,29.75,SE,141,2.0,4.0,78,0.00,,,0.01,Wunderground v.1.15,2013-02-20 23:25:00,
2013-02-20 18:27:00,21.5,16.0,29.75,SSW,194,0.0,4.0,79,0.00,,,0.01,Wunderground v.1.15,2013-02-20 23:27:00,
2013-02-20 18:30:00,21.4,16.2,29.75,WNW,292,2.0,2.0,80,0.00,,,0.01,Wunderground v.1.15,2013-02-20 23:30:00,
2013-02-20 18:32:00,21.3,16.4,29.75,WNW,288,2.0,3.0,81,0.00,,,0.01,Wunderground v.1.15,2013-02-20 23:32:00,
2013-02-20 18:35:00,21.2,16.6,29.76,SSE,159,0.0,3.0,82,0.00,,,0.01,Wunderground v.1.15,2013-02-20 23:35:00,
2013-02-20 18:37:00,21.1,16.5,29.75,West,259,2.0,5.0,82,0.00,,,0.01,Wunderground v.1.15,2013-02-20 23:37:00,
2013-02-20 18:40:00,21.0,16.1,29.75,West,269,5.0,6.0,81,0.00,,,0.01,Wunderground v.1.15,2013-02-20 23:40:00,
2013-02-20 18:41:00,20.9,16.0,29.76,WSW,252,2.0,6.0,81,0.00,,,0.01,Wunderground v.1.15,2013-02-20 23:41:00,
2013-02-20 18:42:00,20.9,16.0,29.75,West,262,1.0,6.0,81,0.00,,,0.01,Wunderground v.1.15,2013-02-20 23:42:00,
2013-02-20 18:43:00,20.9,16.0,29.75,WSW,253,1.0,6.0,81,0.00,,,0.01,Wunderground v.1.15,2013-02-20 23:43:00,
2013-02-20 18:45:00,20.9,16.0,29.75,West,266,4.0,6.0,81,0.00,,,0.01,Wunderground v.1.15,2013-02-20 23:45:00,
2013-02-20 18:46:00,20.9,15.7,29.75,WSW,258,2.0,6.0,80,0.00,,,0.01,Wunderground v.1.15,2013-02-20 23:46:00,
2013-02-20 18:47:00,20.8,15.6,29.75,NW,321,2.0,6.0,80,0.00,,,0.01,Wunderground v.1.15,2013-02-20 23:47:00,
2013-02-20 18:48:00,20.8,15.6,29.75,West,280,2.0,6.0,80,0.00,,,0.01,Wunderground v.1.15,2013-02-20 23:48:00,
2013-02-20 18:50:00,20.8,15.3,29.75,SW,234,0.0,2.0,79,0.00,,,0.01,Wunderground v.1.15,2013-02-20 23:50:00,
2013-02-20 18:51:00,20.8,15.3,29.75,West,264,4.0,4.0,79,0.00,,,0.01,Wunderground v.1.15,2013-02-20 23:51:00,
2013-02-20 18:53:00,20.9,15.1,29.75,WSW,254,3.0,7.0,78,0.00,,,0.01,Wunderground v.1.15,2013-02-20 23:53:00,
2013-02-20 18:55:00,20.9,15.1,29.75,WSW,243,0.0,7.0,78,0.00,,,0.01,Wunderground v.1.15,2013-02-20 23:55:00,
2013-02-20 18:56:00,20.9,15.1,29.75,SW,222,5.0,7.0,78,0.00,,,0.01,Wunderground v.1.15,2013-02-20 23:56:00,
2013-02-20 18:58:00,20.9,15.1,29.75,West,276,0.0,7.0,78,0.00,,,0.01,Wunderground v.1.15,2013-02-20 23:58:00,
2013-02-20 19:02:00,20.8,15.0,29.75,West,260,7.0,8.0,78,0.00,,,0.01,Wunderground v.1.15,2013-02-21 00:02:00,
2013-02-20 19:03:00,20.8,14.7,29.76,West,266,2.0,8.0,77,0.00,,,0.01,Wunderground v.1.15,2013-02-21 00:03:00,
2013-02-20 19:07:00,20.9,14.8,29.76,West,265,5.0,8.0,77,0.00,,,0.01,Wunderground v.1.15,2013-02-21 00:07:00,
2013-02-20 19:08:00,20.8,14.7,29.76,WSW,243,4.0,8.0,77,0.00,,,0.01,Wunderground v.1.15,2013-02-21 00:08:00,
2013-02-20 19:12:00,20.8,14.4,29.76,SW,232,3.0,10.0,76,0.00,,,0.01,Wunderground v.1.15,2013-02-21 00:12:00,
2013-02-20 19:13:00,20.8,14.4,29.75,West,263,3.0,10.0,76,0.00,,,0.01,Wunderground v.1.15,2013-02-21 00:13:00,
2013-02-20 19:17:00,20.8,14.4,29.75,WNW,283,2.0,10.0,76,0.00,,,0.01,Wunderground v.1.15,2013-02-21 00:17:00,
2013-02-20 19:18:00,20.7,14.3,29.75,West,277,1.0,10.0,76,0.00,,,0.01,Wunderground v.1.15,2013-02-21 00:18:00,
2013-02-20 19:22:00,20.6,14.2,29.75,West,269,1.0,9.0,76,0.00,,,0.01,Wunderground v.1.15,2013-02-21 00:22:00,
2013-02-20 19:23:00,20.6,14.2,29.75,SW,228,1.0,9.0,76,0.00,,,0.01,Wunderground v.1.15,2013-02-21 00:23:00,
2013-02-20 19:27:00,20.6,14.5,29.75,NNE,30,2.0,9.0,77,0.00,,,0.01,Wunderground v.1.15,2013-02-21 00:27:00,
2013-02-20 19:28:00,20.5,14.4,29.75,WSW,242,3.0,9.0,77,0.00,,,0.01,Wunderground v.1.15,2013-02-21 00:28:00,
2013-02-20 19:32:00,20.4,14.3,29.75,NW,318,2.0,6.0,77,0.00,,,0.01,Wunderground v.1.15,2013-02-21 00:32:00,
2013-02-20 19:33:00,20.4,14.3,29.75,NNW,331,1.0,6.0,77,0.00,,,0.01,Wunderground v.1.15,2013-02-21 00:33:00,
2013-02-20 19:37:00,20.3,14.2,29.75,SE,131,0.0,6.0,77,0.00,,,0.01,Wunderground v.1.15,2013-02-21 00:37:00,
2013-02-20 19:38:00,20.2,14.1,29.75,ESE,112,2.0,6.0,77,0.00,,,0.01,Wunderground v.1.15,2013-02-21 00:38:00,
2013-02-20 19:42:00,20.1,14.0,29.76,SE,131,1.0,5.0,77,0.00,,,0.01,Wunderground v.1.15,2013-02-21 00:42:00,
2013-02-20 19:43:00,20.1,14.0,29.75,East,89,2.0,5.0,77,0.00,,,0.01,Wunderground v.1.15,2013-02-21 00:43:00,
2013-02-20 19:44:00,20.1,14.3,29.75,SSW,204,1.0,5.0,78,0.00,,,0.01,Wunderground v.1.15,2013-02-21 00:44:00,
2013-02-20 19:47:00,20.0,14.2,29.76,South,174,1.0,5.0,78,0.00,,,0.01,Wunderground v.1.15,2013-02-21 00:47:00,
2013-02-20 19:48:00,19.9,14.1,29.75,WNW,298,1.0,5.0,78,0.00,,,0.01,Wunderground v.1.15,2013-02-21 00:48:00,
2013-02-20 19:49:00,19.9,14.1,29.75,SW,228,2.0,5.0,78,0.00,,,0.01,Wunderground v.1.15,2013-02-21 00:49:00,
2013-02-20 19:52:00,19.8,14.0,29.76,East,98,5.0,7.0,78,0.00,,,0.01,Wunderground v.1.15,2013-02-21 00:52:00,
2013-02-20 19:53:00,19.8,14.0,29.76,South,190,3.0,7.0,78,0.00,,,0.01,Wunderground v.1.15,2013-02-21 00:53:00,
2013-02-20 19:54:00,19.8,14.0,29.76,SW,226,3.0,7.0,78,0.00,,,0.01,Wunderground v.1.15,2013-02-21 00:54:00,
2013-02-20 19:58:00,19.8,14.0,29.76,NW,320,1.0,7.0,78,0.00,,,0.01,Wunderground v.1.15,2013-02-21 00:58:00,
2013-02-20 19:59:00,19.8,14.0,29.76,NW,305,2.0,7.0,78,0.00,,,0.01,Wunderground v.1.15,2013-02-21 00:59:00,
2013-02-20 20:03:00,19.8,13.8,29.76,WSW,255,0.0,4.0,77,0.00,,,0.01,Wunderground v.1.15,2013-02-21 01:03:00,
2013-02-20 20:04:00,19.8,13.8,29.76,South,190,1.0,4.0,77,0.00,,,0.01,Wunderground v.1.15,2013-02-21 01:04:00,
2013-02-20 20:08:00,19.8,13.8,29.76,ENE,59,1.0,7.0,77,0.00,,,0.01,Wunderground v.1.15,2013-02-21 01:08:00,
2013-02-20 20:09:00,19.8,13.8,29.76,SW,219,1.0,7.0,77,0.00,,,0.01,Wunderground v.1.15,2013-02-21 01:09:00,
2013-02-20 20:13:00,19.7,13.7,29.76,WSW,238,1.0,6.0,77,0.00,,,0.01,Wunderground v.1.15,2013-02-21 01:13:00,
2013-02-20 20:14:00,19.7,13.7,29.76,ESE,108,0.0,6.0,77,0.00,,,0.01,Wunderground v.1.15,2013-02-21 01:14:00,
2013-02-20 20:18:00,19.6,13.6,29.76,ENE,60,1.0,6.0,77,0.00,,,0.01,Wunderground v.1.15,2013-02-21 01:18:00,
2013-02-20 20:19:00,19.6,13.6,29.77,ENE,60,0.0,6.0,77,0.00,,,0.01,Wunderground v.1.15,2013-02-21 01:19:00,
2013-02-20 20:20:00,19.6,13.6,29.76,West,281,5.0,6.0,77,0.00,,,0.01,Wunderground v.1.15,2013-02-21 01:20:00,
2013-02-20 20:23:00,19.6,13.9,29.77,WSW,246,1.0,11.0,78,0.00,,,0.01,Wunderground v.1.15,2013-02-21 01:23:00,
2013-02-20 20:24:00,19.6,13.9,29.77,South,180,1.0,11.0,78,0.00,,,0.01,Wunderground v.1.15,2013-02-21 01:24:00,
2013-02-20 20:25:00,19.6,13.6,29.77,SSW,211,0.0,11.0,77,0.00,,,0.01,Wunderground v.1.15,2013-02-21 01:25:00,
2013-02-20 20:28:00,19.6,13.6,29.77,West,265,3.0,11.0,77,0.00,,,0.01,Wunderground v.1.15,2013-02-21 01:28:00,
2013-02-20 20:29:00,19.6,13.6,29.77,WNW,294,2.0,11.0,77,0.00,,,0.01,Wunderground v.1.15,2013-02-21 01:29:00,
2013-02-20 20:30:00,19.5,13.5,29.77,West,269,1.0,2.0,77,0.00,,,0.01,Wunderground v.1.15,2013-02-21 01:30:00,
2013-02-20 20:33:00,19.4,13.4,29.77,WSW,246,2.0,4.0,77,0.00,,,0.01,Wunderground v.1.15,2013-02-21 01:33:00,
2013-02-20 20:34:00,19.4,13.4,29.77,West,260,3.0,4.0,77,0.00,,,0.01,Wunderground v.1.15,2013-02-21 01:34:00,
2013-02-20 20:35:00,19.4,13.7,29.78,West,260,2.0,4.0,78,0.00,,,0.01,Wunderground v.1.15,2013-02-21 01:35:00,
2013-02-20 20:39:00,19.5,13.5,29.78,NW,304,0.0,6.0,77,0.00,,,0.01,Wunderground v.1.15,2013-02-21 01:39:00,
2013-02-20 20:40:00,19.5,13.5,29.78,WNW,301,0.0,2.0,77,0.00,,,0.01,Wunderground v.1.15,2013-02-21 01:40:00,
2013-02-20 20:44:00,19.6,13.6,29.77,West,264,0.0,4.0,77,0.00,,,0.01,Wunderground v.1.15,2013-02-21 01:44:00,
2013-02-20 20:45:00,19.6,13.6,29.78,West,264,0.0,4.0,77,0.00,,,0.01,Wunderground v.1.15,2013-02-21 01:45:00,
2013-02-20 20:49:00,19.6,13.6,29.78,WNW,288,1.0,6.0,77,0.00,,,0.01,Wunderground v.1.15,2013-02-21 01:49:00,
2013-02-20 20:50:00,19.5,13.5,29.78,WSW,243,1.0,1.0,77,0.00,,,0.01,Wunderground v.1.15,2013-02-21 01:50:00,
2013-02-20 20:54:00,19.5,13.8,29.78,West,259,5.0,6.0,78,0.00,,,0.01,Wunderground v.1.15,2013-02-21 01:54:00,
2013-02-20 20:55:00,19.5,13.8,29.78,SW,233,2.0,6.0,78,0.00,,,0.01,Wunderground v.1.15,2013-02-21 01:55:00,
2013-02-20 20:59:00,19.6,13.9,29.78,WNW,302,1.0,6.0,78,0.00,,,0.01,Wunderground v.1.15,2013-02-21 01:59:00,
2013-02-20 21:00:00,19.5,13.8,29.78,WNW,290,3.0,5.0,78,0.00,,,0.01,Wunderground v.1.15,2013-02-21 02:00:00,
2013-02-20 21:02:00,19.5,13.8,29.78,SW,222,1.0,5.0,78,0.00,,,0.01,Wunderground v.1.15,2013-02-21 02:02:00,
2013-02-20 21:04:00,19.5,13.5,29.78,ESE,105,2.0,5.0,77,0.00,,,0.01,Wunderground v.1.15,2013-02-21 02:04:00,
2013-02-20 21:05:00,19.6,13.6,29.78,West,270,1.0,5.0,77,0.00,,,0.01,Wunderground v.1.15,2013-02-21 02:05:00,
2013-02-20 21:07:00,19.5,13.8,29.78,WSW,252,1.0,5.0,78,0.00,,,0.01,Wunderground v.1.15,2013-02-21 02:07:00,
2013-02-20 21:10:00,19.5,13.8,29.78,SW,219,2.0,5.0,78,0.00,,,0.01,Wunderground v.1.15,2013-02-21 02:10:00,
2013-02-20 21:12:00,19.4,13.7,29.79,West,269,2.0,5.0,78,0.00,,,0.01,Wunderground v.1.15,2013-02-21 02:12:00,
2013-02-20 21:15:00,19.4,13.7,29.78,West,273,1.0,5.0,78,0.00,,,0.01,Wunderground v.1.15,2013-02-21 02:15:00,
2013-02-20 21:16:00,19.4,13.7,29.79,WSW,246,2.0,5.0,78,0.00,,,0.01,Wunderground v.1.15,2013-02-21 02:16:00,
2013-02-20 21:17:00,19.4,13.7,29.79,WSW,243,2.0,5.0,78,0.00,,,0.01,Wunderground v.1.15,2013-02-21 02:17:00,
2013-02-20 21:20:00,19.5,13.8,29.79,SW,219,0.0,2.0,78,0.00,,,0.01,Wunderground v.1.15,2013-02-21 02:20:00,
2013-02-20 21:21:00,19.4,13.7,29.79,SSW,212,1.0,2.0,78,0.00,,,0.01,Wunderground v.1.15,2013-02-21 02:21:00,
2013-02-20 21:22:00,19.4,13.7,29.79,WNW,288,1.0,3.0,78,0.00,,,0.01,Wunderground v.1.15,2013-02-21 02:22:00,
2013-02-20 21:25:00,19.4,13.9,29.79,West,260,2.0,4.0,79,0.00,,,0.01,Wunderground v.1.15,2013-02-21 02:25:00,
2013-02-20 21:26:00,19.4,13.9,29.79,WSW,245,10.0,10.0,79,0.00,,,0.01,Wunderground v.1.15,2013-02-21 02:26:00,
2013-02-20 21:27:00,19.5,14.0,29.79,WNW,283,4.0,10.0,79,0.00,,,0.01,Wunderground v.1.15,2013-02-21 02:27:00,
2013-02-20 21:30:00,19.6,14.1,29.79,West,266,2.0,3.0,79,0.00,,,0.01,Wunderground v.1.15,2013-02-21 02:30:00,
2013-02-20 21:31:00,19.6,14.1,29.79,ESE,122,1.0,3.0,79,0.00,,,0.01,Wunderground v.1.15,2013-02-21 02:31:00,
2013-02-20 21:32:00,19.6,14.1,29.79,SW,231,1.0,6.0,79,0.00,,,0.01,Wunderground v.1.15,2013-02-21 02:32:00,
2013-02-20 21:35:00,19.6,14.1,29.79,ESE,112,2.0,6.0,79,0.00,,,0.01,Wunderground v.1.15,2013-02-21 02:35:00,
2013-02-20 21:36:00,19.6,14.1,29.79,SSW,203,1.0,6.0,79,0.00,,,0.01,Wunderground v.1.15,2013-02-21 02:36:00,
2013-02-20 21:37:00,19.6,14.1,29.79,WSW,257,3.0,6.0,79,0.00,,,0.01,Wunderground v.1.15,2013-02-21 02:37:00,
2013-02-20 21:40:00,19.7,14.2,29.79,WNW,288,2.0,2.0,79,0.00,,,0.01,Wunderground v.1.15,2013-02-21 02:40:00,
2013-02-20 21:41:00,19.6,14.1,29.79,WNW,291,1.0,2.0,79,0.00,,,0.01,Wunderground v.1.15,2013-02-21 02:41:00,
2013-02-20 21:42:00,19.7,14.2,29.79,SSW,212,5.0,5.0,79,0.00,,,0.01,Wunderground v.1.15,2013-02-21 02:42:00,
2013-02-20 21:45:00,19.7,14.0,29.79,ESE,112,1.0,7.0,78,0.00,,,0.01,Wunderground v.1.15,2013-02-21 02:45:00,
2013-02-20 21:46:00,19.7,14.0,29.79,ESE,106,2.0,7.0,78,0.00,,,0.01,Wunderground v.1.15,2013-02-21 02:46:00,
2013-02-20 21:47:00,19.8,14.3,29.79,SSE,150,0.0,7.0,79,0.00,,,0.01,Wunderground v.1.15,2013-02-21 02:47:00,
2013-02-20 21:50:00,19.8,14.3,29.79,SW,236,2.0,4.0,79,0.00,,,0.01,Wunderground v.1.15,2013-02-21 02:50:00,
2013-02-20 21:51:00,19.8,14.3,29.79,ESE,108,1.0,4.0,79,0.00,,,0.01,Wunderground v.1.15,2013-02-21 02:51:00,
2013-02-20 21:52:00,19.8,14.3,29.79,WSW,238,1.0,4.0,79,0.00,,,0.01,Wunderground v.1.15,2013-02-21 02:52:00,
2013-02-20 21:55:00,19.7,14.2,29.79,SW,235,2.0,6.0,79,0.00,,,0.01,Wunderground v.1.15,2013-02-21 02:55:00,
2013-02-20 21:56:00,19.7,14.2,29.79,SW,231,2.0,6.0,79,0.00,,,0.01,Wunderground v.1.15,2013-02-21 02:56:00,
2013-02-20 21:57:00,19.8,14.0,29.79,West,263,1.0,6.0,78,0.00,,,0.01,Wunderground v.1.15,2013-02-21 02:57:00,
2013-02-20 22:02:00,19.8,14.0,29.78,ESE,116,2.0,2.0,78,0.00,,,0.01,Wunderground v.1.15,2013-02-21 03:02:00,
2013-02-20 22:03:00,19.7,14.0,29.78,ENE,61,0.0,2.0,78,0.00,,,0.01,Wunderground v.1.15,2013-02-21 03:03:00,
2013-02-20 22:07:00,19.8,14.0,29.79,SW,229,0.0,6.0,78,0.00,,,0.01,Wunderground v.1.15,2013-02-21 03:07:00,
2013-02-20 22:08:00,19.8,14.3,29.79,ENE,65,2.0,6.0,79,0.00,,,0.01,Wunderground v.1.15,2013-02-21 03:08:00,
2013-02-20 22:12:00,19.7,14.2,29.79,West,278,4.0,6.0,79,0.00,,,0.01,Wunderground v.1.15,2013-02-21 03:12:00,
2013-02-20 22:13:00,19.7,14.2,29.79,ESE,112,2.0,6.0,79,0.00,,,0.01,Wunderground v.1.15,2013-02-21 03:13:00,
2013-02-20 22:14:00,19.7,14.2,29.79,SE,135,1.0,6.0,79,0.00,,,0.01,Wunderground v.1.15,2013-02-21 03:14:00,
2013-02-20 22:17:00,19.7,14.2,29.79,East,96,1.0,7.0,79,0.00,,,0.01,Wunderground v.1.15,2013-02-21 03:17:00,
2013-02-20 22:18:00,19.7,14.2,29.79,WSW,257,4.0,7.0,79,0.00,,,0.01,Wunderground v.1.15,2013-02-21 03:18:00,
2013-02-20 22:22:00,19.6,14.1,29.80,SW,214,3.0,4.0,79,0.00,,,0.01,Wunderground v.1.15,2013-02-21 03:22:00,
2013-02-20 22:23:00,19.6,14.1,29.80,SW,233,3.0,4.0,79,0.00,,,0.01,Wunderground v.1.15,2013-02-21 03:23:00,
2013-02-20 22:24:00,19.6,14.1,29.80,South,187,2.0,4.0,79,0.00,,,0.01,Wunderground v.1.15,2013-02-21 03:24:00,
2013-02-20 22:27:00,19.5,14.0,29.80,SW,229,2.0,4.0,79,0.00,,,0.01,Wunderground v.1.15,2013-02-21 03:27:00,
2013-02-20 22:28:00,19.4,13.9,29.80,SW,224,2.0,4.0,79,0.00,,,0.01,Wunderground v.1.15,2013-02-21 03:28:00,
2013-02-20 22:29:00,19.4,13.9,29.80,WSW,249,3.0,4.0,79,0.00,,,0.01,Wunderground v.1.15,2013-02-21 03:29:00,
2013-02-20 22:32:00,19.4,14.2,29.80,West,269,7.0,8.0,80,0.00,,,0.01,Wunderground v.1.15,2013-02-21 03:32:00,
2013-02-20 22:33:00,19.4,14.2,29.80,WSW,257,5.0,8.0,80,0.00,,,0.01,Wunderground v.1.15,2013-02-21 03:33:00,
2013-02-20 22:34:00,19.4,14.2,29.80,SW,232,4.0,8.0,80,0.00,,,0.01,Wunderground v.1.15,2013-02-21 03:34:00,
2013-02-20 22:37:00,19.4,14.2,29.81,West,277,3.0,8.0,80,0.00,,,0.01,Wunderground v.1.15,2013-02-21 03:37:00,
2013-02-20 22:38:00,19.4,14.2,29.80,SSW,210,10.0,14.0,80,0.00,,,0.01,Wunderground v.1.15,2013-02-21 03:38:00,
2013-02-20 22:39:00,19.4,14.2,29.81,WSW,246,1.0,14.0,80,0.00,,,0.01,Wunderground v.1.15,2013-02-21 03:39:00,
2013-02-20 22:42:00,19.3,14.4,29.81,WSW,246,1.0,5.0,81,0.00,,,0.01,Wunderground v.1.15,2013-02-21 03:42:00,
2013-02-20 22:43:00,19.3,14.4,29.81,West,274,2.0,5.0,81,0.00,,,0.01,Wunderground v.1.15,2013-02-21 03:43:00,
2013-02-20 22:44:00,19.3,14.4,29.81,WNW,283,4.0,7.0,81,0.00,,,0.01,Wunderground v.1.15,2013-02-21 03:44:00,
2013-02-20 22:47:00,19.2,14.3,29.81,West,280,3.0,8.0,81,0.00,,,0.01,Wunderground v.1.15,2013-02-21 03:47:00,
2013-02-20 22:48:00,19.2,14.3,29.81,West,260,5.0,8.0,81,0.00,,,0.01,Wunderground v.1.15,2013-02-21 03:48:00,
2013-02-20 22:49:00,19.2,14.3,29.81,SSW,196,3.0,8.0,81,0.00,,,0.01,Wunderground v.1.15,2013-02-21 03:49:00,
2013-02-20 22:52:00,19.2,14.3,29.81,SSW,207,4.0,7.0,81,0.00,,,0.01,Wunderground v.1.15,2013-02-21 03:52:00,
2013-02-20 22:53:00,19.2,14.3,29.81,SW,236,11.0,11.0,81,0.00,,,0.01,Wunderground v.1.15,2013-02-21 03:53:00,
2013-02-20 22:54:00,19.2,14.3,29.81,WNW,290,5.0,11.0,81,0.00,,,0.01,Wunderground v.1.15,2013-02-21 03:54:00,
2013-02-20 22:58:00,19.2,14.3,29.81,SW,221,3.0,11.0,81,0.00,,,0.01,Wunderground v.1.15,2013-02-21 03:58:00,
2013-02-20 22:59:00,19.2,14.3,29.81,South,190,3.0,11.0,81,0.00,,,0.01,Wunderground v.1.15,2013-02-21 03:59:00,
2013-02-20 23:03:00,19.2,14.3,29.80,SW,232,4.0,6.0,81,0.00,,,0.01,Wunderground v.1.15,2013-02-21 04:03:00,
2013-02-20 23:04:00,19.2,14.3,29.80,WSW,253,5.0,6.0,81,0.00,,,0.01,Wunderground v.1.15,2013-02-21 04:04:00,
2013-02-20 23:05:00,19.2,14.3,29.81,West,266,2.0,6.0,81,0.00,,,0.01,Wunderground v.1.15,2013-02-21 04:05:00,
2013-02-20 23:08:00,19.3,14.4,29.81,WSW,246,2.0,6.0,81,0.00,,,0.01,Wunderground v.1.15,2013-02-21 04:08:00,
2013-02-20 23:09:00,19.3,14.4,29.81,SW,229,3.0,6.0,81,0.00,,,0.01,Wunderground v.1.15,2013-02-21 04:09:00,
2013-02-20 23:10:00,19.3,14.4,29.81,WSW,252,6.0,6.0,81,0.00,,,0.01,Wunderground v.1.15,2013-02-21 04:10:00,
2013-02-20 23:14:00,19.3,14.4,29.81,WSW,255,4.0,8.0,81,0.00,,,0.01,Wunderground v.1.15,2013-02-21 04:14:00,
2013-02-20 23:15:00,19.3,14.4,29.81,SW,236,3.0,8.0,81,0.00,,,0.01,Wunderground v.1.15,2013-02-21 04:15:00,
2013-02-20 23:19:00,19.3,14.4,29.81,West,278,2.0,8.0,81,0.00,,,0.01,Wunderground v.1.15,2013-02-21 04:19:00,
2013-02-20 23:20:00,19.3,14.4,29.81,WSW,255,6.0,9.0,81,0.00,,,0.01,Wunderground v.1.15,2013-02-21 04:20:00,
2013-02-20 23:24:00,19.4,14.5,29.81,West,271,4.0,7.0,81,0.00,,,0.01,Wunderground v.1.15,2013-02-21 04:24:00,
2013-02-20 23:25:00,19.3,14.4,29.81,West,260,2.0,7.0,81,0.00,,,0.01,Wunderground v.1.15,2013-02-21 04:25:00,
2013-02-20 23:29:00,19.3,14.4,29.81,WNW,283,3.0,7.0,81,0.00,,,0.01,Wunderground v.1.15,2013-02-21 04:29:00,
2013-02-20 23:30:00,19.4,14.5,29.81,West,269,4.0,7.0,81,0.00,,,0.01,Wunderground v.1.15,2013-02-21 04:30:00,
2013-02-20 23:31:00,19.3,14.4,29.82,SW,236,3.0,3.0,81,0.00,,,0.01,Wunderground v.1.15,2013-02-21 04:31:00,
2013-02-20 23:34:00,19.4,14.5,29.81,WNW,282,3.0,8.0,81,0.00,,,0.01,Wunderground v.1.15,2013-02-21 04:34:00,
2013-02-20 23:36:00,19.5,14.6,29.82,WSW,246,1.0,8.0,81,0.00,,,0.01,Wunderground v.1.15,2013-02-21 04:36:00,
2013-02-20 23:39:00,19.5,14.3,29.82,West,260,2.0,13.0,80,0.00,,,0.01,Wunderground v.1.15,2013-02-21 04:39:00,
2013-02-20 23:41:00,19.6,14.4,29.82,WSW,253,3.0,3.0,80,0.00,,,0.01,Wunderground v.1.15,2013-02-21 04:41:00,
2013-02-20 23:44:00,19.6,14.4,29.82,SSW,195,2.0,8.0,80,0.00,,,0.01,Wunderground v.1.15,2013-02-21 04:44:00,
2013-02-20 23:45:00,19.7,14.5,29.82,WNW,292,1.0,8.0,80,0.00,,,0.01,Wunderground v.1.15,2013-02-21 04:45:00,
2013-02-20 23:46:00,19.6,14.4,29.82,WNW,290,2.0,8.0,80,0.00,,,0.01,Wunderground v.1.15,2013-02-21 04:46:00,
2013-02-20 23:49:00,19.7,14.2,29.82,WNW,291,1.0,8.0,79,0.00,,,0.01,Wunderground v.1.15,2013-02-21 04:49:00,
2013-02-20 23:50:00,19.7,14.2,29.82,WSW,249,3.0,8.0,79,0.00,,,0.01,Wunderground v.1.15,2013-02-21 04:50:00,
2013-02-20 23:51:00,19.7,14.5,29.82,West,259,1.0,3.0,80,0.00,,,0.01,Wunderground v.1.15,2013-02-21 04:51:00,
2013-02-20 23:54:00,19.6,14.4,29.82,SW,228,1.0,4.0,80,0.00,,,0.01,Wunderground v.1.15,2013-02-21 04:54:00,
2013-02-20 23:55:00,19.6,14.4,29.82,SW,222,1.0,4.0,80,0.00,,,0.01,Wunderground v.1.15,2013-02-21 04:55:00,
2013-02-20 23:56:00,19.6,14.4,29.81,SW,236,6.0,6.0,80,0.00,,,0.01,Wunderground v.1.15,2013-02-21 04:56:00,
2013-02-20 23:59:00,19.7,14.2,29.82,West,260,2.0,8.0,79,0.00,,,0.01,Wunderground v.1.15,2013-02-21 04:59:00,